Time,TemperatureF,DewpointF,PressureIn,WindDirection,WindDirectionDegrees,WindSpeedMPH,WindSpeedGustMPH,Humidity,HourlyPrecipIn,Conditions,Clouds,dailyrainin,SolarRadiationWatts/m^2,SoftwareType,DateUTC
2013-04-12 00:00:00,36.5,34.9,29.63,West,271,2.0,8.0,94,0.00,,OVC015,0.00,0.00,VWS V14.00,2013-04-12 05:00:00,
2013-04-12 00:02:00,36.4,34.6,29.63,WNW,293,5.0,11.0,93,0.00,,OVC016,0.00,0.00,VWS V14.00,2013-04-12 05:02:00,
2013-04-12 00:03:00,36.5,34.7,29.63,NW,311,2.0,11.0,93,0.00,,OVC016,0.00,0.00,VWS V14.00,2013-04-12 05:03:00,
2013-04-12 00:05:00,36.4,34.6,29.63,WNW,286,2.0,11.0,93,0.00,,OVC015,0.00,0.00,VWS V14.00,2013-04-12 05:05:00,
2013-04-12 00:07:00,36.4,34.6,29.63,WNW,293,3.0,9.0,93,0.00,,OVC016,0.00,0.00,VWS V14.00,2013-04-12 05:07:00,
2013-04-12 00:08:00,36.4,34.6,29.63,West,270,5.0,9.0,93,0.00,,OVC016,0.00,0.00,VWS V14.00,2013-04-12 05:08:00,
2013-04-12 00:10:00,36.4,34.6,29.63,West,275,5.0,9.0,93,0.00,,OVC015,0.00,0.00,VWS V14.00,2013-04-12 05:10:00,
2013-04-12 00:12:00,36.4,34.6,29.63,WNW,301,4.0,9.0,93,0.00,,OVC016,0.00,0.00,VWS V14.00,2013-04-12 05:12:00,
2013-04-12 00:13:00,36.4,34.6,29.63,WNW,298,5.0,9.0,93,0.00,,OVC016,0.00,0.00,VWS V14.00,2013-04-12 05:13:00,
2013-04-12 00:15:00,36.4,34.6,29.63,WNW,288,8.0,9.0,93,0.00,,OVC015,0.00,0.00,VWS V14.00,2013-04-12 05:15:00,
2013-04-12 00:17:00,36.4,34.8,29.63,WNW,286,6.0,8.0,94,0.00,,OVC016,0.00,0.00,VWS V14.00,2013-04-12 05:17:00,
2013-04-12 00:18:00,36.4,34.8,29.63,WNW,288,8.0,8.0,94,0.00,,OVC016,0.00,0.00,VWS V14.00,2013-04-12 05:18:00,
2013-04-12 00:20:00,36.3,34.7,29.63,NW,317,7.0,8.0,94,0.00,,OVC015,0.00,0.00,VWS V14.00,2013-04-12 05:20:00,
2013-04-12 00:23:00,36.3,34.5,29.63,West,275,6.0,10.0,93,0.00,,OVC032,0.00,0.00,VWS V14.00,2013-04-12 05:23:00,
2013-04-12 00:25:00,36.3,34.5,29.63,WNW,294,5.0,10.0,93,0.00,,OVC015,0.00,0.00,VWS V14.00,2013-04-12 05:25:00,
2013-04-12 00:28:00,36.3,34.5,29.63,WNW,286,2.0,9.0,93,0.00,,OVC032,0.00,0.00,VWS V14.00,2013-04-12 05:28:00,
2013-04-12 00:29:00,36.3,34.5,29.63,West,281,8.0,9.0,93,0.00,,OVC032,0.00,0.00,VWS V14.00,2013-04-12 05:29:00,
2013-04-12 00:30:00,36.3,34.5,29.63,NW,315,9.0,9.0,93,0.00,,OVC015,0.00,0.00,VWS V14.00,2013-04-12 05:30:00,
2013-04-12 00:33:00,36.3,34.7,29.63,WNW,284,3.0,11.0,94,0.00,,OVC032,0.00,0.00,VWS V14.00,2013-04-12 05:33:00,
2013-04-12 00:34:00,36.2,34.6,29.63,WNW,284,3.0,3.0,94,0.00,,OVC032,0.00,0.00,VWS V14.00,2013-04-12 05:34:00,
2013-04-12 00:35:00,36.2,34.6,29.63,WNW,303,7.0,8.0,94,0.00,,OVC032,0.00,0.00,VWS V14.00,2013-04-12 05:35:00,
2013-04-12 00:38:00,36.2,34.6,29.63,WNW,286,4.0,11.0,94,0.00,,OVC032,0.00,0.00,VWS V14.00,2013-04-12 05:38:00,
2013-04-12 00:39:00,36.2,34.6,29.63,WNW,298,4.0,5.0,94,0.00,,OVC032,0.00,0.00,VWS V14.00,2013-04-12 05:39:00,
2013-04-12 00:40:00,36.2,34.6,29.63,West,272,2.0,5.0,94,0.00,,OVC014,0.00,0.00,VWS V14.00,2013-04-12 05:40:00,
2013-04-12 00:43:00,36.1,34.5,29.63,WNW,286,4.0,9.0,94,0.00,,OVC014,0.00,0.00,VWS V14.00,2013-04-12 05:43:00,
2013-04-12 00:44:00,36.1,34.5,29.63,WNW,288,3.0,3.0,94,0.00,,OVC014,0.00,0.00,VWS V14.00,2013-04-12 05:44:00,
2013-04-12 00:45:00,36.1,34.5,29.63,WNW,291,5.0,5.0,94,0.00,,OVC014,0.00,0.00,VWS V14.00,2013-04-12 05:45:00,
2013-04-12 00:48:00,36.1,34.5,29.63,WNW,284,5.0,8.0,94,0.00,,OVC014,0.00,0.00,VWS V14.00,2013-04-12 05:48:00,
2013-04-12 00:49:00,36.1,34.5,29.63,WSW,254,5.0,8.0,94,0.00,,OVC014,0.00,0.00,VWS V14.00,2013-04-12 05:49:00,
2013-04-12 00:50:00,36.1,34.5,29.63,WNW,295,4.0,6.0,94,0.00,,OVC014,0.00,0.00,VWS V14.00,2013-04-12 05:50:00,
2013-04-12 00:53:00,36.1,34.5,29.63,WNW,294,6.0,11.0,94,0.00,,OVC014,0.00,0.00,VWS V14.00,2013-04-12 05:53:00,
2013-04-12 00:54:00,36.1,34.5,29.63,WNW,289,4.0,4.0,94,0.00,,OVC014,0.00,0.00,VWS V14.00,2013-04-12 05:54:00,
2013-04-12 00:55:00,36.0,34.7,29.63,WNW,289,5.0,8.0,95,0.00,,OVC014,0.00,0.00,VWS V14.00,2013-04-12 05:55:00,
2013-04-12 00:58:00,36.0,34.7,29.63,WSW,257,9.0,12.0,95,0.00,,OVC014,0.00,0.00,VWS V14.00,2013-04-12 05:58:00,
2013-04-12 00:59:00,36.0,34.7,29.63,NW,319,4.0,7.0,95,0.00,,OVC014,0.00,0.00,VWS V14.00,2013-04-12 05:59:00,
2013-04-12 01:00:00,36.0,34.7,29.63,WNW,294,8.0,8.0,95,0.00,,OVC014,0.00,0.00,VWS V14.00,2013-04-12 06:00:00,
2013-04-12 01:03:00,36.0,34.7,29.63,WNW,290,2.0,10.0,95,0.00,,OVC014,0.00,0.00,VWS V14.00,2013-04-12 06:03:00,
2013-04-12 01:04:00,36.0,34.7,29.63,WNW,294,7.0,7.0,95,0.00,,OVC014,0.00,0.00,VWS V14.00,2013-04-12 06:04:00,
2013-04-12 01:05:00,36.0,34.7,29.63,WNW,295,3.0,8.0,95,0.00,,OVC014,0.00,0.00,VWS V14.00,2013-04-12 06:05:00,
2013-04-12 01:09:00,35.9,34.6,29.63,WNW,292,3.0,9.0,95,0.00,,OVC014,0.00,0.00,VWS V14.00,2013-04-12 06:09:00,
2013-04-12 01:10:00,35.9,34.6,29.63,West,274,5.0,7.0,95,0.00,,OVC014,0.00,0.00,VWS V14.00,2013-04-12 06:10:00,
2013-04-12 01:14:00,35.8,34.5,29.63,WNW,300,8.0,13.0,95,0.00,,OVC014,0.00,0.00,VWS V14.00,2013-04-12 06:14:00,
2013-04-12 01:15:00,35.8,34.5,29.64,West,279,6.0,9.0,95,0.01,,OVC014,0.01,0.00,VWS V14.00,2013-04-12 06:15:00,
2013-04-12 01:19:00,35.7,34.4,29.64,West,281,8.0,10.0,95,0.01,,OVC014,0.01,0.00,VWS V14.00,2013-04-12 06:19:00,
2013-04-12 01:20:00,35.7,34.4,29.64,West,259,5.0,10.0,95,0.01,,OVC012,0.01,0.00,VWS V14.00,2013-04-12 06:20:00,
2013-04-12 01:21:00,35.7,34.4,29.64,West,275,9.0,10.0,95,0.01,,OVC012,0.01,0.00,VWS V14.00,2013-04-12 06:21:00,
2013-04-12 01:24:00,35.6,34.3,29.64,WNW,296,3.0,4.0,95,0.01,,OVC012,0.01,0.00,VWS V14.00,2013-04-12 06:24:00,
2013-04-12 01:25:00,35.6,34.3,29.64,WNW,285,5.0,8.0,95,0.01,,OVC012,0.01,0.00,VWS V14.00,2013-04-12 06:25:00,
2013-04-12 01:26:00,35.6,34.3,29.64,NW,317,3.0,8.0,95,0.01,,OVC012,0.01,0.00,VWS V14.00,2013-04-12 06:26:00,
2013-04-12 01:29:00,35.6,34.3,29.64,WNW,297,3.0,3.0,95,0.01,,OVC012,0.01,0.00,VWS V14.00,2013-04-12 06:29:00,
2013-04-12 01:30:00,35.6,34.3,29.64,West,277,5.0,9.0,95,0.01,,OVC012,0.01,0.00,VWS V14.00,2013-04-12 06:30:00,
2013-04-12 01:31:00,35.6,34.3,29.64,WNW,290,3.0,9.0,95,0.01,,OVC012,0.01,0.00,VWS V14.00,2013-04-12 06:31:00,
2013-04-12 01:34:00,35.5,34.2,29.64,WNW,282,8.0,8.0,95,0.01,,OVC012,0.01,0.00,VWS V14.00,2013-04-12 06:34:00,
2013-04-12 01:35:00,35.5,34.2,29.64,WNW,282,6.0,8.0,95,0.01,,OVC012,0.01,0.00,VWS V14.00,2013-04-12 06:35:00,
2013-04-12 01:36:00,35.5,34.2,29.64,WNW,284,7.0,8.0,95,0.01,,OVC012,0.01,0.00,VWS V14.00,2013-04-12 06:36:00,
2013-04-12 01:37:00,35.5,34.2,29.64,NW,307,6.0,11.0,95,0.01,,OVC012,0.01,0.00,VWS V14.00,2013-04-12 06:37:00,
2013-04-12 01:39:00,35.5,34.2,29.64,WNW,286,4.0,7.0,95,0.01,,OVC012,0.01,0.00,VWS V14.00,2013-04-12 06:39:00,
2013-04-12 01:40:00,35.5,34.2,29.64,NW,313,5.0,11.0,95,0.01,,OVC015,0.01,0.00,VWS V14.00,2013-04-12 06:40:00,
2013-04-12 01:41:00,35.5,34.2,29.64,NW,311,6.0,9.0,95,0.01,,OVC012,0.01,0.00,VWS V14.00,2013-04-12 06:41:00,
2013-04-12 01:42:00,35.5,34.2,29.64,NW,313,6.0,9.0,95,0.01,,OVC012,0.01,0.00,VWS V14.00,2013-04-12 06:42:00,
2013-04-12 01:44:00,35.5,34.2,29.63,WNW,297,8.0,10.0,95,0.01,,OVC012,0.01,0.00,VWS V14.00,2013-04-12 06:44:00,
2013-04-12 01:45:00,35.5,34.2,29.63,WNW,294,9.0,13.0,95,0.01,,OVC015,0.01,0.00,VWS V14.00,2013-04-12 06:45:00,
2013-04-12 01:46:00,35.5,34.2,29.63,WNW,292,3.0,10.0,95,0.01,,OVC012,0.01,0.00,VWS V14.00,2013-04-12 06:46:00,
2013-04-12 01:47:00,35.5,34.2,29.63,WNW,295,9.0,10.0,95,0.01,,OVC012,0.01,0.00,VWS V14.00,2013-04-12 06:47:00,
2013-04-12 01:49:00,35.4,34.1,29.63,NW,307,4.0,4.0,95,0.01,,OVC012,0.01,0.00,VWS V14.00,2013-04-12 06:49:00,
2013-04-12 01:50:00,35.4,34.1,29.63,WNW,298,4.0,10.0,95,0.01,,OVC015,0.01,0.00,VWS V14.00,2013-04-12 06:50:00,
2013-04-12 01:51:00,35.4,34.1,29.63,WNW,300,6.0,10.0,95,0.01,,OVC012,0.01,0.00,VWS V14.00,2013-04-12 06:51:00,
2013-04-12 01:52:00,35.4,34.1,29.63,WNW,297,4.0,10.0,95,0.01,,OVC012,0.01,0.00,VWS V14.00,2013-04-12 06:52:00,
2013-04-12 01:54:00,35.4,34.4,29.63,NW,304,4.0,6.0,96,0.01,,OVC012,0.01,0.00,VWS V14.00,2013-04-12 06:54:00,
2013-04-12 01:55:00,35.4,34.4,29.63,West,265,5.0,10.0,96,0.01,,OVC015,0.01,0.00,VWS V14.00,2013-04-12 06:55:00,
2013-04-12 01:56:00,35.4,34.4,29.63,WNW,292,6.0,9.0,96,0.01,,OVC012,0.01,0.00,VWS V14.00,2013-04-12 06:56:00,
2013-04-12 01:57:00,35.4,34.4,29.63,WNW,293,5.0,9.0,96,0.01,,OVC012,0.01,0.00,VWS V14.00,2013-04-12 06:57:00,
2013-04-12 02:00:00,35.4,34.4,29.63,WNW,286,8.0,8.0,96,0.01,,OVC012,0.01,0.00,VWS V14.00,2013-04-12 07:00:00,
2013-04-12 02:02:00,35.4,34.4,29.63,WNW,300,10.0,12.0,96,0.01,,OVC012,0.01,0.00,VWS V14.00,2013-04-12 07:02:00,
2013-04-12 02:03:00,35.4,34.4,29.63,WNW,292,7.0,12.0,96,0.01,,OVC012,0.01,0.00,VWS V14.00,2013-04-12 07:03:00,
2013-04-12 02:05:00,35.4,34.1,29.63,WNW,296,3.0,7.0,95,0.01,,OVC012,0.01,0.00,VWS V14.00,2013-04-12 07:05:00,
2013-04-12 02:08:00,35.4,34.1,29.63,NW,308,6.0,9.0,95,0.01,,OVC012,0.01,0.00,VWS V14.00,2013-04-12 07:08:00,
2013-04-12 02:10:00,35.4,34.1,29.63,WNW,295,4.0,8.0,95,0.01,,OVC012,0.01,0.00,VWS V14.00,2013-04-12 07:10:00,
2013-04-12 02:13:00,35.3,34.0,29.63,WNW,298,4.0,10.0,95,0.01,,OVC012,0.01,0.00,VWS V14.00,2013-04-12 07:13:00,
2013-04-12 02:15:00,35.3,34.0,29.63,WNW,302,9.0,12.0,95,0.01,,OVC012,0.01,0.00,VWS V14.00,2013-04-12 07:15:00,
2013-04-12 02:18:00,35.3,34.0,29.63,WNW,284,9.0,15.0,95,0.01,,OVC012,0.01,0.00,VWS V14.00,2013-04-12 07:18:00,
2013-04-12 02:20:00,35.2,33.9,29.63,WNW,295,6.0,15.0,95,0.00,,,0.01,0.00,VWS V14.00,2013-04-12 07:20:00,
2013-04-12 02:23:00,35.2,33.9,29.63,NW,313,8.0,15.0,95,0.00,,,0.01,0.00,VWS V14.00,2013-04-12 07:23:00,
2013-04-12 02:25:00,35.2,33.9,29.63,NW,305,5.0,11.0,95,0.00,,,0.01,0.00,VWS V14.00,2013-04-12 07:25:00,
2013-04-12 02:28:00,35.1,33.8,29.63,NW,305,8.0,17.0,95,0.00,,,0.01,0.00,VWS V14.00,2013-04-12 07:28:00,
2013-04-12 02:30:00,35.1,33.8,29.63,WNW,294,6.0,12.0,95,0.00,,,0.01,0.00,VWS V14.00,2013-04-12 07:30:00,
2013-04-12 02:33:00,35.0,33.7,29.63,WNW,283,7.0,14.0,95,0.00,,,0.01,0.00,VWS V14.00,2013-04-12 07:33:00,
2013-04-12 02:34:00,35.0,33.7,29.63,NW,322,10.0,14.0,95,0.00,,,0.01,0.00,VWS V14.00,2013-04-12 07:34:00,
2013-04-12 02:35:00,35.0,33.7,29.63,NW,322,10.0,14.0,95,0.00,,OVC015,0.01,0.00,VWS V14.00,2013-04-12 07:35:00,
2013-04-12 02:36:00,35.0,33.7,29.63,NW,309,10.0,10.0,95,0.00,,,0.01,0.00,VWS V14.00,2013-04-12 07:36:00,
2013-04-12 02:38:00,34.9,33.6,29.63,West,275,5.0,10.0,95,0.00,,,0.01,0.00,VWS V14.00,2013-04-12 07:38:00,
2013-04-12 02:39:00,34.9,33.6,29.63,WNW,285,5.0,7.0,95,0.00,,,0.01,0.00,VWS V14.00,2013-04-12 07:39:00,
2013-04-12 02:40:00,34.9,33.6,29.63,WNW,302,4.0,10.0,95,0.00,,OVC015,0.01,0.00,VWS V14.00,2013-04-12 07:40:00,
2013-04-12 02:41:00,34.9,33.6,29.64,WNW,292,11.0,12.0,95,0.00,,OVC013,0.01,0.00,VWS V14.00,2013-04-12 07:41:00,
2013-04-12 02:44:00,34.9,33.6,29.64,NW,309,11.0,14.0,95,0.00,,OVC013,0.01,0.00,VWS V14.00,2013-04-12 07:44:00,
2013-04-12 02:45:00,34.8,33.5,29.64,NW,317,14.0,14.0,95,0.00,,OVC015,0.01,0.00,VWS V14.00,2013-04-12 07:45:00,
2013-04-12 02:47:00,34.8,33.5,29.64,WNW,303,10.0,18.0,95,0.00,,OVC013,0.01,0.00,VWS V14.00,2013-04-12 07:47:00,
2013-04-12 02:49:00,34.8,33.5,29.64,WNW,294,4.0,18.0,95,0.00,,OVC013,0.01,0.00,VWS V14.00,2013-04-12 07:49:00,
2013-04-12 02:50:00,34.8,33.5,29.64,WNW,293,2.0,18.0,95,0.00,,OVC015,0.01,0.00,VWS V14.00,2013-04-12 07:50:00,
2013-04-12 02:52:00,34.8,33.5,29.64,NW,313,7.0,11.0,95,0.00,,OVC013,0.01,0.00,VWS V14.00,2013-04-12 07:52:00,
2013-04-12 02:54:00,34.8,33.5,29.64,WNW,292,9.0,15.0,95,0.00,,OVC013,0.01,0.00,VWS V14.00,2013-04-12 07:54:00,
2013-04-12 02:55:00,34.8,33.5,29.64,WNW,292,9.0,15.0,95,0.00,,OVC015,0.01,0.00,VWS V14.00,2013-04-12 07:55:00,
2013-04-12 02:57:00,34.8,33.5,29.64,NW,311,10.0,15.0,95,0.00,,OVC013,0.01,0.00,VWS V14.00,2013-04-12 07:57:00,
2013-04-12 02:59:00,34.8,33.5,29.64,WNW,298,8.0,8.0,95,0.00,,OVC013,0.01,0.00,VWS V14.00,2013-04-12 07:59:00,
2013-04-12 03:00:00,34.8,33.5,29.64,NW,312,9.0,15.0,95,0.00,,OVC015,0.01,0.00,VWS V14.00,2013-04-12 08:00:00,
2013-04-12 03:02:00,34.8,33.5,29.64,NW,313,9.0,17.0,95,0.00,,OVC012,0.01,0.00,VWS V14.00,2013-04-12 08:02:00,
2013-04-12 03:04:00,34.8,33.5,29.64,WNW,296,5.0,9.0,95,0.00,,OVC012,0.01,0.00,VWS V14.00,2013-04-12 08:04:00,
2013-04-12 03:05:00,34.8,33.5,29.64,NW,313,17.0,18.0,95,0.00,,OVC012,0.01,0.00,VWS V14.00,2013-04-12 08:05:00,
2013-04-12 03:07:00,34.8,33.5,29.64,NW,316,14.0,18.0,95,0.00,,OVC012,0.01,0.00,VWS V14.00,2013-04-12 08:07:00,
2013-04-12 03:09:00,34.8,33.5,29.64,NNW,333,12.0,13.0,95,0.00,,OVC012,0.01,0.00,VWS V14.00,2013-04-12 08:09:00,
2013-04-12 03:10:00,34.8,33.5,29.64,NW,311,13.0,15.0,95,0.00,,OVC012,0.01,0.00,VWS V14.00,2013-04-12 08:10:00,
2013-04-12 03:12:00,34.8,33.5,29.64,NW,306,11.0,15.0,95,0.00,,OVC012,0.01,0.00,VWS V14.00,2013-04-12 08:12:00,
2013-04-12 03:14:00,34.8,33.5,29.64,NNW,327,4.0,4.0,95,0.00,,OVC012,0.01,0.00,VWS V14.00,2013-04-12 08:14:00,
2013-04-12 03:15:00,34.8,33.5,29.64,West,266,6.0,7.0,95,0.00,,OVC012,0.01,0.00,VWS V14.00,2013-04-12 08:15:00,
2013-04-12 03:18:00,34.9,33.6,29.65,NW,309,14.0,14.0,95,0.00,,OVC012,0.01,0.00,VWS V14.00,2013-04-12 08:18:00,
2013-04-12 03:19:00,34.9,33.6,29.65,NW,310,6.0,9.0,95,0.00,,OVC012,0.01,0.00,VWS V14.00,2013-04-12 08:19:00,
2013-04-12 03:20:00,34.9,33.6,29.65,WNW,298,7.0,9.0,95,0.00,,OVC012,0.01,0.00,VWS V14.00,2013-04-12 08:20:00,
2013-04-12 03:23:00,34.9,33.6,29.65,West,277,8.0,15.0,95,0.00,,OVC012,0.01,0.00,VWS V14.00,2013-04-12 08:23:00,
2013-04-12 03:24:00,35.0,33.7,29.65,NW,319,14.0,14.0,95,0.00,,OVC012,0.01,0.00,VWS V14.00,2013-04-12 08:24:00,
2013-04-12 03:25:00,35.0,33.7,29.65,WNW,300,9.0,14.0,95,0.00,,OVC012,0.01,0.00,VWS V14.00,2013-04-12 08:25:00,
2013-04-12 03:28:00,35.0,33.7,29.65,NW,310,10.0,15.0,95,0.00,,OVC012,0.01,0.00,VWS V14.00,2013-04-12 08:28:00,
2013-04-12 03:30:00,35.0,33.7,29.65,NW,319,8.0,12.0,95,0.00,,OVC012,0.01,0.00,VWS V14.00,2013-04-12 08:30:00,
2013-04-12 03:31:00,35.0,33.7,29.65,NW,325,2.0,12.0,95,0.00,,OVC012,0.01,0.00,VWS V14.00,2013-04-12 08:31:00,
2013-04-12 03:34:00,35.0,33.7,29.65,NW,319,7.0,12.0,95,0.00,,OVC012,0.01,0.00,VWS V14.00,2013-04-12 08:34:00,
2013-04-12 03:35:00,35.0,33.7,29.65,NW,304,5.0,11.0,95,0.00,,OVC012,0.01,0.00,VWS V14.00,2013-04-12 08:35:00,
2013-04-12 03:36:00,35.0,33.7,29.65,NW,319,9.0,11.0,95,0.00,,OVC012,0.01,0.00,VWS V14.00,2013-04-12 08:36:00,
2013-04-12 03:39:00,35.0,33.7,29.65,NW,310,8.0,8.0,95,0.00,,OVC012,0.01,0.00,VWS V14.00,2013-04-12 08:39:00,
2013-04-12 03:40:00,35.0,33.7,29.65,NNW,335,14.0,18.0,95,0.00,,OVC010,0.01,0.00,VWS V14.00,2013-04-12 08:40:00,
2013-04-12 03:41:00,35.0,33.7,29.65,WNW,300,8.0,18.0,95,0.00,,OVC010,0.01,0.00,VWS V14.00,2013-04-12 08:41:00,
2013-04-12 03:44:00,35.0,33.7,29.65,NW,304,7.0,9.0,95,0.00,,OVC010,0.01,0.00,VWS V14.00,2013-04-12 08:44:00,
2013-04-12 03:45:00,35.0,33.7,29.65,NNW,339,11.0,17.0,95,0.00,,OVC010,0.01,0.00,VWS V14.00,2013-04-12 08:45:00,
2013-04-12 03:46:00,35.0,33.7,29.65,NW,312,8.0,17.0,95,0.00,,OVC010,0.01,0.00,VWS V14.00,2013-04-12 08:46:00,
2013-04-12 03:49:00,35.0,33.7,29.65,NW,315,3.0,8.0,95,0.00,,OVC010,0.01,0.00,VWS V14.00,2013-04-12 08:49:00,
2013-04-12 03:50:00,35.0,33.7,29.65,NW,322,13.0,20.0,95,0.00,,OVC010,0.01,0.00,VWS V14.00,2013-04-12 08:50:00,
2013-04-12 03:51:00,35.0,33.7,29.65,NW,305,10.0,20.0,95,0.00,,OVC010,0.01,0.00,VWS V14.00,2013-04-12 08:51:00,
2013-04-12 03:52:00,35.0,33.7,29.65,NW,323,10.0,20.0,95,0.00,,OVC010,0.01,0.00,VWS V14.00,2013-04-12 08:52:00,
2013-04-12 03:54:00,34.9,33.3,29.65,NW,315,11.0,11.0,94,0.00,,OVC010,0.01,0.00,VWS V14.00,2013-04-12 08:54:00,
2013-04-12 03:55:00,35.0,33.5,29.66,WNW,293,8.0,11.0,94,0.00,,OVC010,0.01,0.00,VWS V14.00,2013-04-12 08:55:00,
2013-04-12 03:56:00,34.9,33.3,29.66,NNW,327,7.0,11.0,94,0.00,,OVC010,0.01,0.00,VWS V14.00,2013-04-12 08:56:00,
2013-04-12 03:57:00,34.9,33.3,29.65,NW,319,10.0,12.0,94,0.00,,OVC010,0.01,0.00,VWS V14.00,2013-04-12 08:57:00,
2013-04-12 03:59:00,34.9,33.3,29.66,NW,312,16.0,16.0,94,0.00,,OVC010,0.01,0.00,VWS V14.00,2013-04-12 08:59:00,
2013-04-12 04:00:00,34.9,33.3,29.65,NW,325,7.0,16.0,94,0.00,,OVC010,0.01,0.00,VWS V14.00,2013-04-12 09:00:00,
2013-04-12 04:01:00,34.9,33.3,29.65,WNW,289,8.0,16.0,94,0.00,,OVC010,0.01,0.00,VWS V14.00,2013-04-12 09:01:00,
2013-04-12 04:02:00,34.9,33.3,29.66,NW,308,10.0,16.0,94,0.00,,OVC010,0.01,0.00,VWS V14.00,2013-04-12 09:02:00,
2013-04-12 04:04:00,34.9,33.3,29.66,North,351,9.0,12.0,94,0.00,,OVC010,0.01,0.00,VWS V14.00,2013-04-12 09:04:00,
2013-04-12 04:05:00,34.9,33.3,29.66,NW,315,5.0,12.0,94,0.00,,OVC010,0.01,0.00,VWS V14.00,2013-04-12 09:05:00,
2013-04-12 04:06:00,34.9,33.3,29.66,NW,318,4.0,12.0,94,0.00,,OVC010,0.01,0.00,VWS V14.00,2013-04-12 09:06:00,
2013-04-12 04:07:00,34.9,33.3,29.66,WNW,296,8.0,13.0,94,0.00,,OVC010,0.01,0.00,VWS V14.00,2013-04-12 09:07:00,
2013-04-12 04:09:00,34.9,33.3,29.66,WNW,288,7.0,11.0,94,0.00,,OVC010,0.01,0.00,VWS V14.00,2013-04-12 09:09:00,
2013-04-12 04:10:00,34.9,33.3,29.66,WNW,284,8.0,11.0,94,0.00,,OVC010,0.01,0.00,VWS V14.00,2013-04-12 09:10:00,
2013-04-12 04:11:00,34.9,33.3,29.66,WNW,290,5.0,11.0,94,0.00,,OVC010,0.01,0.00,VWS V14.00,2013-04-12 09:11:00,
2013-04-12 04:12:00,34.9,33.3,29.66,West,278,4.0,14.0,94,0.00,,OVC010,0.01,0.00,VWS V14.00,2013-04-12 09:12:00,
2013-04-12 04:15:00,34.9,33.3,29.66,North,360,13.0,14.0,94,0.00,,OVC010,0.01,0.00,VWS V14.00,2013-04-12 09:15:00,
2013-04-12 04:16:00,34.8,33.2,29.66,NW,304,10.0,15.0,94,0.00,,OVC010,0.01,0.00,VWS V14.00,2013-04-12 09:16:00,
2013-04-12 04:17:00,34.8,33.2,29.66,NW,321,11.0,16.0,94,0.00,,OVC010,0.01,0.00,VWS V14.00,2013-04-12 09:17:00,
2013-04-12 04:20:00,34.8,33.0,29.66,WNW,292,9.0,10.0,93,0.00,,OVC010,0.01,0.00,VWS V14.00,2013-04-12 09:20:00,
2013-04-12 04:21:00,34.8,33.0,29.66,NW,304,10.0,15.0,93,0.00,,OVC010,0.01,0.00,VWS V14.00,2013-04-12 09:21:00,
2013-04-12 04:22:00,34.8,33.0,29.67,NW,312,7.0,15.0,93,0.00,,OVC010,0.01,0.00,VWS V14.00,2013-04-12 09:22:00,
2013-04-12 04:25:00,34.8,33.0,29.67,NNW,331,8.0,10.0,93,0.00,,OVC010,0.01,0.00,VWS V14.00,2013-04-12 09:25:00,
2013-04-12 04:26:00,34.8,33.0,29.67,NW,304,8.0,15.0,93,0.00,,OVC010,0.01,0.00,VWS V14.00,2013-04-12 09:26:00,
2013-04-12 04:27:00,34.8,33.0,29.67,WNW,288,8.0,15.0,93,0.00,,OVC010,0.01,0.00,VWS V14.00,2013-04-12 09:27:00,
2013-04-12 04:30:00,34.7,32.9,29.67,WNW,297,7.0,10.0,93,0.00,,OVC010,0.01,0.00,VWS V14.00,2013-04-12 09:30:00,
2013-04-12 04:31:00,34.7,32.9,29.67,NW,311,6.0,10.0,93,0.00,,OVC010,0.01,0.00,VWS V14.00,2013-04-12 09:31:00,
2013-04-12 04:32:00,34.7,32.9,29.67,NW,317,7.0,12.0,93,0.00,,OVC010,0.01,0.00,VWS V14.00,2013-04-12 09:32:00,
2013-04-12 04:33:00,34.7,32.9,29.67,WNW,296,5.0,12.0,93,0.00,,OVC010,0.01,0.00,VWS V14.00,2013-04-12 09:33:00,
2013-04-12 04:35:00,34.7,32.9,29.67,NW,321,8.0,13.0,93,0.00,,OVC010,0.01,0.00,VWS V14.00,2013-04-12 09:35:00,
2013-04-12 04:36:00,34.7,32.9,29.67,NW,309,6.0,13.0,93,0.00,,OVC010,0.01,0.00,VWS V14.00,2013-04-12 09:36:00,
2013-04-12 04:37:00,34.7,32.9,29.67,WNW,292,8.0,13.0,93,0.00,,OVC010,0.01,0.00,VWS V14.00,2013-04-12 09:37:00,
2013-04-12 04:38:00,34.7,32.9,29.67,WNW,298,6.0,13.0,93,0.00,,OVC010,0.01,0.00,VWS V14.00,2013-04-12 09:38:00,
2013-04-12 04:40:00,34.7,32.9,29.67,WNW,285,7.0,13.0,93,0.00,,OVC017,0.01,0.00,VWS V14.00,2013-04-12 09:40:00,
2013-04-12 04:42:00,34.8,33.0,29.67,NNW,328,3.0,13.0,93,0.00,,OVC017,0.01,0.00,VWS V14.00,2013-04-12 09:42:00,
2013-04-12 04:43:00,34.7,32.9,29.67,NW,323,5.0,13.0,93,0.00,,OVC017,0.01,0.00,VWS V14.00,2013-04-12 09:43:00,
2013-04-12 04:44:00,34.8,33.0,29.67,WNW,283,6.0,13.0,93,0.00,,OVC017,0.01,0.00,VWS V14.00,2013-04-12 09:44:00,
2013-04-12 04:45:00,34.8,33.0,29.67,NW,315,5.0,11.0,93,0.00,,OVC017,0.01,0.00,VWS V14.00,2013-04-12 09:45:00,
2013-04-12 04:48:00,34.8,33.0,29.67,NW,324,9.0,11.0,93,0.00,,OVC017,0.01,0.00,VWS V14.00,2013-04-12 09:48:00,
2013-04-12 04:49:00,34.8,33.0,29.67,NW,312,7.0,11.0,93,0.00,,OVC017,0.01,0.00,VWS V14.00,2013-04-12 09:49:00,
2013-04-12 04:50:00,34.8,33.0,29.67,NW,312,7.0,11.0,93,0.00,,OVC015,0.01,0.00,VWS V14.00,2013-04-12 09:50:00,
2013-04-12 04:51:00,34.8,33.0,29.67,NW,308,9.0,16.0,93,0.00,,OVC017,0.01,0.00,VWS V14.00,2013-04-12 09:51:00,
2013-04-12 04:53:00,34.7,32.9,29.67,NW,304,16.0,16.0,93,0.00,,OVC017,0.01,0.00,VWS V14.00,2013-04-12 09:53:00,
2013-04-12 04:54:00,34.7,32.9,29.67,WNW,303,10.0,11.0,93,0.00,,OVC017,0.01,0.00,VWS V14.00,2013-04-12 09:54:00,
2013-04-12 04:55:00,34.7,32.9,29.67,NW,325,11.0,18.0,93,0.00,,OVC015,0.01,0.00,VWS V14.00,2013-04-12 09:55:00,
2013-04-12 04:56:00,34.7,32.6,29.67,West,277,4.0,11.0,92,0.00,,OVC017,0.01,0.00,VWS V14.00,2013-04-12 09:56:00,
2013-04-12 04:58:00,34.7,32.6,29.67,NW,310,6.0,11.0,92,0.00,,OVC017,0.01,0.00,VWS V14.00,2013-04-12 09:58:00,
2013-04-12 04:59:00,34.7,32.6,29.67,NW,324,5.0,5.0,92,0.00,,OVC017,0.01,0.00,VWS V14.00,2013-04-12 09:59:00,
2013-04-12 05:00:00,34.7,32.6,29.67,WNW,297,4.0,11.0,92,0.00,,OVC015,0.01,0.00,VWS V14.00,2013-04-12 10:00:00,
2013-04-12 05:02:00,34.7,32.9,29.67,NW,319,11.0,17.0,93,0.00,,OVC014,0.01,0.00,VWS V14.00,2013-04-12 10:02:00,
2013-04-12 05:03:00,34.7,32.6,29.67,NW,304,6.0,17.0,92,0.00,,OVC014,0.01,0.00,VWS V14.00,2013-04-12 10:03:00,
2013-04-12 05:05:00,34.7,32.6,29.67,NW,312,7.0,13.0,92,0.00,,OVC014,0.01,0.00,VWS V14.00,2013-04-12 10:05:00,
2013-04-12 05:07:00,34.7,32.6,29.67,WNW,302,3.0,13.0,92,0.00,,OVC014,0.01,0.00,VWS V14.00,2013-04-12 10:07:00,
2013-04-12 05:09:00,34.7,32.6,29.67,SE,126,11.0,13.0,92,0.00,,OVC014,0.01,0.00,VWS V14.00,2013-04-12 10:09:00,
2013-04-12 05:10:00,34.6,32.5,29.67,NW,326,16.0,16.0,92,0.00,,OVC014,0.01,0.00,VWS V14.00,2013-04-12 10:10:00,
2013-04-12 05:12:00,34.6,32.5,29.68,WNW,298,10.0,16.0,92,0.00,,OVC014,0.01,0.00,VWS V14.00,2013-04-12 10:12:00,
2013-04-12 05:14:00,34.6,32.5,29.68,NW,320,9.0,16.0,92,0.00,,OVC014,0.01,0.00,VWS V14.00,2013-04-12 10:14:00,
2013-04-12 05:15:00,34.5,32.4,29.68,NNW,343,5.0,13.0,92,0.00,,OVC014,0.01,0.00,VWS V14.00,2013-04-12 10:15:00,
2013-04-12 05:17:00,34.4,32.3,29.68,NW,304,9.0,16.0,92,0.00,,OVC014,0.01,0.00,VWS V14.00,2013-04-12 10:17:00,
2013-04-12 05:19:00,34.4,32.3,29.67,WNW,292,3.0,16.0,92,0.00,,OVC014,0.01,0.00,VWS V14.00,2013-04-12 10:19:00,
2013-04-12 05:20:00,34.4,32.3,29.67,NW,322,8.0,10.0,92,0.00,,OVC021,0.01,0.00,VWS V14.00,2013-04-12 10:20:00,
2013-04-12 05:22:00,34.3,32.0,29.67,NW,313,8.0,16.0,91,0.00,,OVC021,0.01,0.00,VWS V14.00,2013-04-12 10:22:00,
2013-04-12 05:24:00,34.3,32.0,29.67,WNW,300,10.0,10.0,91,0.00,,OVC021,0.01,0.00,VWS V14.00,2013-04-12 10:24:00,
2013-04-12 05:25:00,34.2,31.9,29.67,NNW,328,5.0,14.0,91,0.00,,OVC021,0.01,0.00,VWS V14.00,2013-04-12 10:25:00,
2013-04-12 05:27:00,34.1,31.8,29.67,NW,305,8.0,14.0,91,0.00,,OVC021,0.01,0.00,VWS V14.00,2013-04-12 10:27:00,
2013-04-12 05:29:00,34.1,31.8,29.67,NW,309,10.0,11.0,91,0.00,,OVC021,0.01,0.00,VWS V14.00,2013-04-12 10:29:00,
2013-04-12 05:30:00,34.1,32.0,29.67,NNW,331,17.0,17.0,92,0.00,,OVC021,0.01,0.00,VWS V14.00,2013-04-12 10:30:00,
2013-04-12 05:33:00,34.0,31.9,29.67,West,278,8.0,17.0,92,0.00,,OVC021,0.01,0.00,VWS V14.00,2013-04-12 10:33:00,
2013-04-12 05:34:00,33.9,31.8,29.67,NW,321,9.0,9.0,92,0.00,,OVC021,0.01,0.00,VWS V14.00,2013-04-12 10:34:00,
2013-04-12 05:35:00,33.9,31.8,29.67,NW,320,7.0,9.0,92,0.00,,OVC021,0.01,0.00,VWS V14.00,2013-04-12 10:35:00,
2013-04-12 05:38:00,33.9,31.8,29.68,NW,307,3.0,12.0,92,0.00,,OVC021,0.01,0.00,VWS V14.00,2013-04-12 10:38:00,
2013-04-12 05:39:00,33.9,31.8,29.68,WNW,294,5.0,5.0,92,0.00,,OVC021,0.01,0.00,VWS V14.00,2013-04-12 10:39:00,
2013-04-12 05:40:00,33.8,31.7,29.68,NNW,336,4.0,12.0,92,0.00,,OVC015,0.01,0.00,VWS V14.00,2013-04-12 10:40:00,
2013-04-12 05:41:00,33.9,31.8,29.68,NW,307,4.0,13.0,92,0.00,,OVC016,0.01,0.00,VWS V14.00,2013-04-12 10:41:00,
2013-04-12 05:43:00,33.9,31.8,29.68,WNW,303,7.0,13.0,92,0.00,,OVC016,0.01,0.00,VWS V14.00,2013-04-12 10:43:00,
2013-04-12 05:44:00,33.9,31.8,29.68,WNW,294,4.0,6.0,92,0.00,,OVC016,0.01,0.00,VWS V14.00,2013-04-12 10:44:00,
2013-04-12 05:45:00,33.9,31.8,29.68,WNW,297,6.0,13.0,92,0.00,,OVC015,0.01,0.00,VWS V14.00,2013-04-12 10:45:00,
2013-04-12 05:46:00,33.9,31.8,29.68,NW,319,10.0,11.0,92,0.00,,OVC016,0.01,0.00,VWS V14.00,2013-04-12 10:46:00,
2013-04-12 05:48:00,33.9,31.8,29.68,NW,313,9.0,13.0,92,0.00,,OVC016,0.01,0.00,VWS V14.00,2013-04-12 10:48:00,
2013-04-12 05:49:00,34.0,31.9,29.68,NW,319,10.0,10.0,92,0.00,,OVC016,0.01,0.00,VWS V14.00,2013-04-12 10:49:00,
2013-04-12 05:50:00,33.9,31.8,29.68,NW,323,7.0,13.0,92,0.00,,OVC015,0.01,0.00,VWS V14.00,2013-04-12 10:50:00,
2013-04-12 05:52:00,33.9,31.8,29.68,WNW,302,8.0,11.0,92,0.00,,OVC016,0.01,0.00,VWS V14.00,2013-04-12 10:52:00,
2013-04-12 05:53:00,34.0,31.9,29.68,NW,322,7.0,12.0,92,0.00,,OVC016,0.01,0.00,VWS V14.00,2013-04-12 10:53:00,
2013-04-12 05:54:00,34.0,31.9,29.68,WNW,301,6.0,7.0,92,0.00,,OVC016,0.01,0.00,VWS V14.00,2013-04-12 10:54:00,
2013-04-12 05:55:00,34.0,31.9,29.68,NW,322,6.0,7.0,92,0.00,,OVC016,0.01,0.00,VWS V14.00,2013-04-12 10:55:00,
2013-04-12 05:57:00,34.0,31.9,29.68,WNW,298,6.0,9.0,92,0.00,,OVC016,0.01,0.00,VWS V14.00,2013-04-12 10:57:00,
2013-04-12 05:58:00,34.0,31.9,29.68,NW,323,10.0,13.0,92,0.00,,OVC016,0.01,0.00,VWS V14.00,2013-04-12 10:58:00,
2013-04-12 05:59:00,34.0,31.9,29.68,WNW,300,4.0,7.0,92,0.00,,OVC016,0.01,0.00,VWS V14.00,2013-04-12 10:59:00,
2013-04-12 06:00:00,34.1,32.0,29.68,WNW,286,3.0,7.0,92,0.00,,OVC016,0.01,0.00,VWS V14.00,2013-04-12 11:00:00,
2013-04-12 06:02:00,34.1,32.0,29.68,WNW,300,5.0,10.0,92,0.00,,OVC016,0.01,0.00,VWS V14.00,2013-04-12 11:02:00,
2013-04-12 06:03:00,34.1,32.0,29.69,NW,311,8.0,11.0,92,0.00,,OVC016,0.01,0.00,VWS V14.00,2013-04-12 11:03:00,
2013-04-12 06:04:00,34.1,32.0,29.69,NW,313,6.0,8.0,92,0.00,,OVC016,0.01,0.00,VWS V14.00,2013-04-12 11:04:00,
2013-04-12 06:05:00,34.1,32.0,29.69,NW,313,4.0,8.0,92,0.00,,OVC016,0.01,0.00,VWS V14.00,2013-04-12 11:05:00,
2013-04-12 06:07:00,34.2,32.1,29.69,NW,321,7.0,12.0,92,0.00,,OVC016,0.01,0.00,VWS V14.00,2013-04-12 11:07:00,
2013-04-12 06:09:00,34.2,32.1,29.69,NW,315,7.0,12.0,92,0.00,,OVC016,0.01,0.00,VWS V14.00,2013-04-12 11:09:00,
2013-04-12 06:10:00,34.2,32.1,29.69,WNW,290,7.0,10.0,92,0.00,,OVC016,0.01,0.00,VWS V14.00,2013-04-12 11:10:00,
2013-04-12 06:12:00,34.2,32.1,29.69,West,273,5.0,11.0,92,0.00,,OVC016,0.01,0.00,VWS V14.00,2013-04-12 11:12:00,
2013-04-12 06:14:00,34.2,32.1,29.69,WNW,300,10.0,10.0,92,0.00,,OVC016,0.01,0.00,VWS V14.00,2013-04-12 11:14:00,
2013-04-12 06:15:00,34.2,32.1,29.69,NW,313,6.0,10.0,92,0.00,,OVC016,0.01,0.00,VWS V14.00,2013-04-12 11:15:00,
2013-04-12 06:17:00,34.2,31.9,29.69,NNW,338,4.0,11.0,91,0.00,,OVC016,0.01,0.00,VWS V14.00,2013-04-12 11:17:00,
2013-04-12 06:19:00,34.2,32.1,29.69,NW,318,6.0,6.0,92,0.00,,OVC016,0.01,0.00,VWS V14.00,2013-04-12 11:19:00,
2013-04-12 06:20:00,34.2,31.9,29.69,WNW,300,8.0,10.0,91,0.00,,OVC020,0.01,0.00,VWS V14.00,2013-04-12 11:20:00,
2013-04-12 06:21:00,34.2,31.9,29.69,North,360,12.0,14.0,91,0.00,,OVC020,0.01,0.00,VWS V14.00,2013-04-12 11:21:00,
2013-04-12 06:23:00,34.2,31.9,29.69,WNW,291,8.0,14.0,91,0.00,,OVC020,0.01,0.00,VWS V14.00,2013-04-12 11:23:00,
2013-04-12 06:24:00,34.2,32.1,29.69,NW,312,9.0,11.0,92,0.00,,OVC020,0.01,0.00,VWS V14.00,2013-04-12 11:24:00,
2013-04-12 06:25:00,34.2,31.9,29.69,WNW,294,8.0,17.0,91,0.00,,OVC020,0.01,0.00,VWS V14.00,2013-04-12 11:25:00,
2013-04-12 06:26:00,34.2,31.9,29.69,NW,309,11.0,17.0,91,0.00,,OVC020,0.01,0.00,VWS V14.00,2013-04-12 11:26:00,
2013-04-12 06:28:00,34.2,31.9,29.70,NW,309,5.0,17.0,91,0.00,,OVC020,0.01,0.00,VWS V14.00,2013-04-12 11:28:00,
2013-04-12 06:29:00,34.2,31.9,29.70,WNW,287,5.0,6.0,91,0.00,,OVC020,0.01,0.00,VWS V14.00,2013-04-12 11:29:00,
2013-04-12 06:30:00,34.2,31.9,29.70,WNW,288,5.0,11.0,91,0.00,,OVC020,0.01,0.00,VWS V14.00,2013-04-12 11:30:00,
2013-04-12 06:31:00,34.2,31.9,29.70,NW,319,4.0,11.0,91,0.00,,OVC020,0.01,0.00,VWS V14.00,2013-04-12 11:31:00,
2013-04-12 06:33:00,34.2,31.9,29.70,NW,316,6.0,11.0,91,0.00,,OVC020,0.01,0.00,VWS V14.00,2013-04-12 11:33:00,
2013-04-12 06:34:00,34.2,31.9,29.70,NW,318,7.0,11.0,91,0.00,,OVC020,0.01,0.00,VWS V14.00,2013-04-12 11:34:00,
2013-04-12 06:35:00,34.2,31.9,29.70,WNW,303,5.0,11.0,91,0.00,,OVC020,0.01,0.00,VWS V14.00,2013-04-12 11:35:00,
2013-04-12 06:36:00,34.2,31.9,29.70,NW,323,10.0,11.0,91,0.00,,OVC020,0.01,0.00,VWS V14.00,2013-04-12 11:36:00,
2013-04-12 06:38:00,34.2,31.9,29.70,NW,315,3.0,16.0,91,0.00,,OVC020,0.01,0.00,VWS V14.00,2013-04-12 11:38:00,
2013-04-12 06:39:00,34.2,31.9,29.70,WNW,296,7.0,10.0,91,0.00,,OVC020,0.01,0.00,VWS V14.00,2013-04-12 11:39:00,
2013-04-12 06:40:00,34.2,31.9,29.70,NW,313,8.0,11.0,91,0.00,,OVC022,0.01,0.00,VWS V14.00,2013-04-12 11:40:00,
2013-04-12 06:42:00,34.1,31.5,29.70,NW,313,13.0,13.0,90,0.00,,OVC022,0.01,0.00,VWS V14.00,2013-04-12 11:42:00,
2013-04-12 06:43:00,34.1,31.5,29.70,WNW,298,6.0,18.0,90,0.00,,OVC022,0.01,0.00,VWS V14.00,2013-04-12 11:43:00,
2013-04-12 06:44:00,34.1,31.5,29.71,NW,318,9.0,13.0,90,0.00,,OVC022,0.01,0.00,VWS V14.00,2013-04-12 11:44:00,
2013-04-12 06:45:00,34.1,31.5,29.71,NW,317,8.0,13.0,90,0.00,,OVC022,0.01,0.00,VWS V14.00,2013-04-12 11:45:00,
2013-04-12 06:47:00,34.1,31.5,29.71,NW,316,5.0,13.0,90,0.00,,OVC022,0.01,0.00,VWS V14.00,2013-04-12 11:47:00,
2013-04-12 06:49:00,34.1,31.5,29.71,WNW,300,5.0,13.0,90,0.00,,OVC022,0.01,5.00,VWS V14.00,2013-04-12 11:49:00,
2013-04-12 06:50:00,34.1,31.8,29.71,NW,310,8.0,9.0,91,0.00,,OVC022,0.01,5.00,VWS V14.00,2013-04-12 11:50:00,
2013-04-12 06:52:00,34.1,31.5,29.71,NW,317,3.0,9.0,90,0.00,,OVC022,0.01,5.00,VWS V14.00,2013-04-12 11:52:00,
2013-04-12 06:54:00,34.1,31.8,29.71,NW,325,5.0,9.0,91,0.00,,OVC022,0.01,5.00,VWS V14.00,2013-04-12 11:54:00,
2013-04-12 06:55:00,34.1,31.8,29.71,NW,321,6.0,11.0,91,0.00,,OVC022,0.01,5.00,VWS V14.00,2013-04-12 11:55:00,
2013-04-12 06:56:00,34.1,31.8,29.71,WNW,298,6.0,11.0,91,0.00,,OVC022,0.01,5.00,VWS V14.00,2013-04-12 11:56:00,
2013-04-12 06:57:00,34.1,31.8,29.71,NNW,335,9.0,11.0,91,0.00,,OVC022,0.01,7.00,VWS V14.00,2013-04-12 11:57:00,
2013-04-12 06:59:00,34.1,31.8,29.71,NW,325,5.0,11.0,91,0.00,,OVC022,0.01,7.00,VWS V14.00,2013-04-12 11:59:00,
2013-04-12 07:00:00,34.1,31.8,29.72,NW,315,3.0,7.0,91,0.00,,OVC020,0.01,11.00,VWS V14.00,2013-04-12 12:00:00,
2013-04-12 07:02:00,34.1,31.8,29.71,North,9,9.0,9.0,91,0.00,,OVC020,0.01,12.00,VWS V14.00,2013-04-12 12:02:00,
2013-04-12 07:03:00,34.0,31.6,29.71,NW,310,5.0,9.0,91,0.00,,OVC020,0.01,12.00,VWS V14.00,2013-04-12 12:03:00,
2013-04-12 07:04:00,34.0,31.4,29.71,NW,319,15.0,15.0,90,0.00,,OVC020,0.01,14.00,VWS V14.00,2013-04-12 12:04:00,
2013-04-12 07:05:00,33.9,31.3,29.72,NW,320,16.0,16.0,90,0.00,,OVC020,0.01,16.00,VWS V14.00,2013-04-12 12:05:00,
2013-04-12 07:08:00,33.9,31.0,29.72,NW,319,10.0,16.0,89,0.00,,OVC020,0.01,21.00,VWS V14.00,2013-04-12 12:08:00,
2013-04-12 07:09:00,33.8,30.9,29.72,NW,304,6.0,8.0,89,0.00,,OVC020,0.01,23.00,VWS V14.00,2013-04-12 12:09:00,
2013-04-12 07:10:00,33.8,30.9,29.72,WNW,286,4.0,9.0,89,0.00,,OVC020,0.01,25.00,VWS V14.00,2013-04-12 12:10:00,
2013-04-12 07:13:00,33.8,30.9,29.72,NW,323,6.0,19.0,89,0.00,,OVC020,0.01,25.00,VWS V14.00,2013-04-12 12:13:00,
2013-04-12 07:14:00,33.8,30.9,29.72,NW,310,9.0,14.0,89,0.00,,OVC020,0.01,25.00,VWS V14.00,2013-04-12 12:14:00,
2013-04-12 07:15:00,33.8,30.9,29.72,WNW,286,9.0,14.0,89,0.00,,OVC020,0.01,23.00,VWS V14.00,2013-04-12 12:15:00,
2013-04-12 07:18:00,33.8,30.6,29.72,NW,316,14.0,15.0,88,0.00,,OVC020,0.01,18.00,VWS V14.00,2013-04-12 12:18:00,
2013-04-12 07:19:00,33.8,30.6,29.73,NW,312,3.0,8.0,88,0.00,,OVC020,0.01,19.00,VWS V14.00,2013-04-12 12:19:00,
2013-04-12 07:20:00,33.9,31.0,29.73,WNW,300,7.0,8.0,89,0.00,,OVC060,0.01,21.00,VWS V14.00,2013-04-12 12:20:00,
2013-04-12 07:23:00,33.9,31.0,29.73,WNW,293,5.0,12.0,89,0.00,,OVC060,0.01,21.00,VWS V14.00,2013-04-12 12:23:00,
2013-04-12 07:24:00,33.9,31.0,29.73,NW,304,7.0,12.0,89,0.00,,OVC060,0.01,19.00,VWS V14.00,2013-04-12 12:24:00,
2013-04-12 07:25:00,33.9,31.0,29.73,North,5,9.0,13.0,89,0.00,,OVC060,0.01,18.00,VWS V14.00,2013-04-12 12:25:00,
2013-04-12 07:28:00,33.9,31.0,29.73,NW,308,6.0,13.0,89,0.00,,OVC060,0.01,16.00,VWS V14.00,2013-04-12 12:28:00,
2013-04-12 07:29:00,33.9,31.0,29.73,NW,317,4.0,7.0,89,0.00,,OVC060,0.01,16.00,VWS V14.00,2013-04-12 12:29:00,
2013-04-12 07:30:00,33.9,31.0,29.73,WNW,303,5.0,7.0,89,0.00,,OVC060,0.01,14.00,VWS V14.00,2013-04-12 12:30:00,
2013-04-12 07:33:00,33.9,31.0,29.73,NW,324,4.0,9.0,89,0.00,,OVC060,0.01,16.00,VWS V14.00,2013-04-12 12:33:00,
2013-04-12 07:34:00,34.0,31.1,29.73,NW,324,2.0,9.0,89,0.00,,OVC060,0.01,16.00,VWS V14.00,2013-04-12 12:34:00,
2013-04-12 07:35:00,34.0,31.1,29.73,NW,315,4.0,6.0,89,0.00,,OVC060,0.01,21.00,VWS V14.00,2013-04-12 12:35:00,
2013-04-12 07:38:00,34.0,31.4,29.73,NW,310,8.0,15.0,90,0.00,,OVC060,0.01,35.00,VWS V14.00,2013-04-12 12:38:00,
2013-04-12 07:39:00,34.0,31.4,29.73,NW,306,4.0,15.0,90,0.00,,OVC060,0.01,35.00,VWS V14.00,2013-04-12 12:39:00,
2013-04-12 07:40:00,34.0,31.4,29.73,NW,325,7.0,9.0,90,0.00,,OVC060,0.01,35.00,VWS V14.00,2013-04-12 12:40:00,
2013-04-12 07:43:00,34.1,31.5,29.73,WNW,299,12.0,13.0,90,0.00,,OVC060,0.01,44.00,VWS V14.00,2013-04-12 12:43:00,
2013-04-12 07:44:00,34.1,31.5,29.73,WNW,284,7.0,7.0,90,0.00,,OVC060,0.01,44.00,VWS V14.00,2013-04-12 12:44:00,
2013-04-12 07:45:00,34.1,31.5,29.73,NW,318,6.0,10.0,90,0.00,,OVC060,0.01,63.00,VWS V14.00,2013-04-12 12:45:00,
2013-04-12 07:49:00,34.1,31.5,29.73,NNW,327,9.0,9.0,90,0.00,,OVC060,0.01,69.00,VWS V14.00,2013-04-12 12:49:00,
2013-04-12 07:50:00,34.2,31.6,29.73,WNW,302,3.0,9.0,90,0.00,,OVC060,0.01,72.00,VWS V14.00,2013-04-12 12:50:00,
2013-04-12 07:51:00,34.2,31.6,29.73,NW,306,5.0,10.0,90,0.00,,OVC060,0.01,62.00,VWS V14.00,2013-04-12 12:51:00,
2013-04-12 07:54:00,34.3,31.7,29.74,West,281,5.0,7.0,90,0.00,,OVC060,0.01,60.00,VWS V14.00,2013-04-12 12:54:00,
2013-04-12 07:55:00,34.3,31.7,29.74,WNW,301,4.0,7.0,90,0.00,,OVC060,0.01,60.00,VWS V14.00,2013-04-12 12:55:00,
2013-04-12 07:56:00,34.3,31.7,29.74,NW,307,3.0,8.0,90,0.00,,OVC060,0.01,62.00,VWS V14.00,2013-04-12 12:56:00,
2013-04-12 07:59:00,34.4,31.8,29.74,NW,320,5.0,9.0,90,0.00,,OVC060,0.01,72.00,VWS V14.00,2013-04-12 12:59:00,
2013-04-12 08:00:00,34.4,31.8,29.74,WNW,303,3.0,9.0,90,0.00,,SCT060,0.01,69.00,VWS V14.00,2013-04-12 13:00:00,
2013-04-12 08:01:00,34.4,31.8,29.74,NW,326,4.0,9.0,90,0.00,,SCT060,0.01,76.00,VWS V14.00,2013-04-12 13:01:00,
2013-04-12 08:04:00,34.4,31.8,29.74,NNW,331,9.0,13.0,90,0.00,,SCT060,0.01,77.00,VWS V14.00,2013-04-12 13:04:00,
2013-04-12 08:05:00,34.4,31.8,29.74,NW,323,11.0,16.0,90,0.00,,SCT060,0.01,72.00,VWS V14.00,2013-04-12 13:05:00,
2013-04-12 08:06:00,34.5,31.9,29.74,NW,308,6.0,17.0,90,0.00,,SCT060,0.01,72.00,VWS V14.00,2013-04-12 13:06:00,
2013-04-12 08:09:00,34.5,31.9,29.74,WNW,294,4.0,8.0,90,0.00,,SCT060,0.01,86.00,VWS V14.00,2013-04-12 13:09:00,
2013-04-12 08:10:00,34.5,31.9,29.74,NNW,336,6.0,17.0,90,0.00,,OVC015,0.01,86.00,VWS V14.00,2013-04-12 13:10:00,
2013-04-12 08:11:00,34.6,32.0,29.74,WNW,301,7.0,8.0,90,0.00,,SCT060,0.01,90.00,VWS V14.00,2013-04-12 13:11:00,
2013-04-12 08:14:00,34.7,32.1,29.74,WNW,293,4.0,8.0,90,0.00,,SCT060,0.01,97.00,VWS V14.00,2013-04-12 13:14:00,
2013-04-12 08:15:00,34.6,32.0,29.74,WNW,286,8.0,10.0,90,0.00,,OVC015,0.01,97.00,VWS V14.00,2013-04-12 13:15:00,
2013-04-12 08:16:00,34.7,31.8,29.75,WNW,293,4.0,8.0,89,0.00,,SCT060,0.01,86.00,VWS V14.00,2013-04-12 13:16:00,
2013-04-12 08:17:00,34.7,31.8,29.75,WNW,291,5.0,8.0,89,0.00,,SCT060,0.01,86.00,VWS V14.00,2013-04-12 13:17:00,
2013-04-12 08:19:00,34.7,31.8,29.75,WNW,300,9.0,9.0,89,0.00,,SCT060,0.01,88.00,VWS V14.00,2013-04-12 13:19:00,
2013-04-12 08:20:00,34.7,31.8,29.75,West,279,8.0,15.0,89,0.00,,OVC015,0.01,88.00,VWS V14.00,2013-04-12 13:20:00,
2013-04-12 08:21:00,34.8,31.9,29.75,WNW,296,3.0,13.0,89,0.00,,SCT023,0.01,79.00,VWS V14.00,2013-04-12 13:21:00,
2013-04-12 08:22:00,34.8,31.9,29.75,NW,315,3.0,13.0,89,0.00,,SCT023,0.01,79.00,VWS V14.00,2013-04-12 13:22:00,
2013-04-12 08:25:00,34.8,31.9,29.75,WNW,286,5.0,10.0,89,0.00,,SCT023,0.01,90.00,VWS V14.00,2013-04-12 13:25:00,
2013-04-12 08:27:00,34.8,31.9,29.75,WNW,292,13.0,13.0,89,0.00,,SCT023,0.01,100.00,VWS V14.00,2013-04-12 13:27:00,
2013-04-12 08:30:00,34.9,32.0,29.75,WNW,294,9.0,15.0,89,0.00,,SCT023,0.01,98.00,VWS V14.00,2013-04-12 13:30:00,
2013-04-12 08:32:00,34.9,32.0,29.76,NW,306,14.0,15.0,89,0.00,,SCT023,0.01,113.00,VWS V14.00,2013-04-12 13:32:00,
2013-04-12 08:35:00,35.0,32.1,29.76,NW,326,9.0,9.0,89,0.00,,SCT023,0.01,113.00,VWS V14.00,2013-04-12 13:35:00,
2013-04-12 08:37:00,35.0,32.1,29.76,NW,304,10.0,15.0,89,0.00,,SCT023,0.01,91.00,VWS V14.00,2013-04-12 13:37:00,
2013-04-12 08:40:00,35.0,32.1,29.76,WNW,284,4.0,11.0,89,0.00,,BKN020,0.01,77.00,VWS V14.00,2013-04-12 13:40:00,
2013-04-12 08:42:00,34.9,32.0,29.76,NNW,330,10.0,12.0,89,0.00,,BKN020,0.01,77.00,VWS V14.00,2013-04-12 13:42:00,
2013-04-12 08:43:00,34.9,31.7,29.76,West,266,8.0,12.0,88,0.00,,BKN020,0.01,74.00,VWS V14.00,2013-04-12 13:43:00,
2013-04-12 08:45:00,34.8,31.3,29.76,NW,305,7.0,14.0,87,0.00,,BKN020,0.01,76.00,VWS V14.00,2013-04-12 13:45:00,
2013-04-12 08:47:00,34.7,31.2,29.76,West,273,9.0,16.0,87,0.00,,BKN020,0.01,109.00,VWS V14.00,2013-04-12 13:47:00,
2013-04-12 08:48:00,34.7,31.2,29.76,WNW,300,11.0,16.0,87,0.00,,BKN020,0.01,121.00,VWS V14.00,2013-04-12 13:48:00,
2013-04-12 08:50:00,34.7,31.5,29.76,NNW,329,16.0,16.0,88,0.00,,BKN020,0.01,151.00,VWS V14.00,2013-04-12 13:50:00,
2013-04-12 08:52:00,34.7,31.5,29.76,NW,322,9.0,16.0,88,0.00,,BKN020,0.01,181.00,VWS V14.00,2013-04-12 13:52:00,
2013-04-12 08:53:00,34.8,31.6,29.76,North,355,12.0,16.0,88,0.00,,BKN020,0.01,192.00,VWS V14.00,2013-04-12 13:53:00,
2013-04-12 08:55:00,34.9,31.7,29.76,NW,314,8.0,15.0,88,0.00,,BKN020,0.01,176.00,VWS V14.00,2013-04-12 13:55:00,
2013-04-12 08:57:00,35.0,31.5,29.76,NW,304,7.0,15.0,87,0.00,,BKN020,0.01,195.00,VWS V14.00,2013-04-12 13:57:00,
2013-04-12 08:58:00,35.0,31.8,29.76,WNW,284,9.0,15.0,88,0.00,,BKN020,0.01,195.00,VWS V14.00,2013-04-12 13:58:00,
2013-04-12 09:00:00,35.1,31.6,29.76,NW,309,10.0,17.0,87,0.00,,OVC020,0.01,237.00,VWS V14.00,2013-04-12 14:00:00,
2013-04-12 09:02:00,35.2,32.0,29.76,West,275,6.0,17.0,88,0.00,,OVC020,0.01,216.00,VWS V14.00,2013-04-12 14:02:00,
2013-04-12 09:03:00,35.3,32.1,29.76,NNW,329,7.0,17.0,88,0.00,,OVC020,0.01,216.00,VWS V14.00,2013-04-12 14:03:00,
2013-04-12 09:05:00,35.4,32.2,29.77,NW,307,8.0,18.0,88,0.00,,OVC020,0.01,220.00,VWS V14.00,2013-04-12 14:05:00,
2013-04-12 09:08:00,35.5,32.3,29.76,WNW,292,10.0,18.0,88,0.00,,OVC020,0.01,230.00,VWS V14.00,2013-04-12 14:08:00,
2013-04-12 09:10:00,35.6,32.1,29.76,WNW,303,6.0,18.0,87,0.00,,OVC015,0.01,236.00,VWS V14.00,2013-04-12 14:10:00,
2013-04-12 09:11:00,35.6,31.8,29.77,NW,304,6.0,18.0,86,0.00,,OVC020,0.01,216.00,VWS V14.00,2013-04-12 14:11:00,
2013-04-12 09:13:00,35.7,31.9,29.77,WNW,289,9.0,23.0,86,0.00,,OVC020,0.01,220.00,VWS V14.00,2013-04-12 14:13:00,
2013-04-12 09:14:00,35.7,31.9,29.77,WNW,298,6.0,23.0,86,0.00,,OVC020,0.01,234.00,VWS V14.00,2013-04-12 14:14:00,
2013-04-12 09:15:00,35.7,31.9,29.77,WNW,292,9.0,23.0,86,0.00,,OVC015,0.01,234.00,VWS V14.00,2013-04-12 14:15:00,
2013-04-12 09:17:00,35.7,31.6,29.77,West,280,6.0,17.0,85,0.00,,OVC020,0.01,276.00,VWS V14.00,2013-04-12 14:17:00,
2013-04-12 09:18:00,35.7,31.9,29.77,NW,308,6.0,17.0,86,0.00,,OVC020,0.01,225.00,VWS V14.00,2013-04-12 14:18:00,
2013-04-12 09:19:00,35.7,31.9,29.77,WNW,298,14.0,17.0,86,0.00,,OVC020,0.01,209.00,VWS V14.00,2013-04-12 14:19:00,
2013-04-12 09:20:00,35.7,31.9,29.77,NW,317,10.0,17.0,86,0.00,,OVC015,0.01,209.00,VWS V14.00,2013-04-12 14:20:00,
2013-04-12 09:22:00,35.8,32.0,29.77,WNW,294,5.0,14.0,86,0.00,,OVC020,0.01,220.00,VWS V14.00,2013-04-12 14:22:00,
2013-04-12 09:23:00,35.8,32.3,29.77,WNW,296,5.0,14.0,87,0.00,,OVC020,0.01,207.00,VWS V14.00,2013-04-12 14:23:00,
2013-04-12 09:24:00,35.9,32.4,29.77,WNW,296,5.0,14.0,87,0.00,,OVC020,0.01,234.00,VWS V14.00,2013-04-12 14:24:00,
2013-04-12 09:25:00,35.9,32.4,29.77,WNW,296,3.0,14.0,87,0.00,,OVC015,0.01,234.00,VWS V14.00,2013-04-12 14:25:00,
2013-04-12 09:27:00,36.1,32.6,29.78,WNW,298,5.0,10.0,87,0.00,,OVC020,0.01,206.00,VWS V14.00,2013-04-12 14:27:00,
2013-04-12 09:29:00,36.2,32.7,29.78,WNW,293,5.0,10.0,87,0.00,,OVC020,0.01,218.00,VWS V14.00,2013-04-12 14:29:00,
2013-04-12 09:30:00,36.2,32.7,29.78,NW,305,7.0,10.0,87,0.00,,OVC015,0.01,225.00,VWS V14.00,2013-04-12 14:30:00,
2013-04-12 09:32:00,36.3,32.5,29.78,WNW,298,12.0,12.0,86,0.00,,OVC020,0.01,156.00,VWS V14.00,2013-04-12 14:32:00,
2013-04-12 09:34:00,36.4,32.6,29.78,WNW,298,8.0,14.0,86,0.00,,OVC020,0.01,160.00,VWS V14.00,2013-04-12 14:34:00,
2013-04-12 09:35:00,36.3,32.5,29.78,NW,306,6.0,14.0,86,0.00,,OVC015,0.01,160.00,VWS V14.00,2013-04-12 14:35:00,
2013-04-12 09:37:00,36.1,32.0,29.78,West,279,11.0,11.0,85,0.00,,OVC020,0.01,125.00,VWS V14.00,2013-04-12 14:37:00,
2013-04-12 09:39:00,36.0,31.9,29.78,WNW,286,5.0,11.0,85,0.00,,OVC020,0.01,148.00,VWS V14.00,2013-04-12 14:39:00,
2013-04-12 09:40:00,36.0,31.9,29.78,WNW,286,5.0,11.0,85,0.00,,OVC015,0.01,148.00,VWS V14.00,2013-04-12 14:40:00,
2013-04-12 09:42:00,35.9,31.8,29.79,NW,325,8.0,13.0,85,0.00,,OVC027,0.01,141.00,VWS V14.00,2013-04-12 14:42:00,
2013-04-12 09:44:00,35.8,32.0,29.78,WNW,292,5.0,5.0,86,0.00,,OVC027,0.01,134.00,VWS V14.00,2013-04-12 14:44:00,
2013-04-12 09:45:00,35.8,32.0,29.79,WNW,294,5.0,13.0,86,0.00,,OVC015,0.01,134.00,VWS V14.00,2013-04-12 14:45:00,
2013-04-12 09:48:00,35.7,31.9,29.79,NW,323,9.0,17.0,86,0.00,,OVC027,0.01,121.00,VWS V14.00,2013-04-12 14:48:00,
2013-04-12 09:49:00,35.7,31.9,29.79,WNW,299,13.0,15.0,86,0.00,,OVC027,0.01,121.00,VWS V14.00,2013-04-12 14:49:00,
2013-04-12 09:50:00,35.7,31.9,29.79,NNW,342,10.0,15.0,86,0.00,,OVC027,0.01,121.00,VWS V14.00,2013-04-12 14:50:00,
2013-04-12 09:53:00,35.6,32.1,29.79,WNW,292,5.0,15.0,87,0.00,,OVC027,0.01,111.00,VWS V14.00,2013-04-12 14:53:00,
2013-04-12 09:54:00,35.6,32.1,29.79,NW,324,7.0,7.0,87,0.00,,OVC027,0.01,111.00,VWS V14.00,2013-04-12 14:54:00,
2013-04-12 09:55:00,35.6,32.1,29.79,WNW,301,7.0,9.0,87,0.00,,OVC027,0.01,111.00,VWS V14.00,2013-04-12 14:55:00,
2013-04-12 09:58:00,35.5,32.0,29.79,WNW,291,4.0,10.0,87,0.00,,OVC027,0.01,102.00,VWS V14.00,2013-04-12 14:58:00,
2013-04-12 10:00:00,35.5,32.0,29.79,North,351,9.0,10.0,87,0.00,,OVC027,0.01,135.00,VWS V14.00,2013-04-12 15:00:00,
2013-04-12 10:03:00,35.5,32.3,29.79,NW,315,7.0,11.0,88,0.00,,OVC022,0.01,153.00,VWS V14.00,2013-04-12 15:03:00,
2013-04-12 10:05:00,35.5,32.3,29.79,West,262,8.0,14.0,88,0.00,,OVC022,0.01,121.00,VWS V14.00,2013-04-12 15:05:00,
2013-04-12 10:06:00,35.5,32.3,29.79,WNW,298,8.0,14.0,88,0.00,,OVC022,0.01,118.00,VWS V14.00,2013-04-12 15:06:00,
2013-04-12 10:09:00,35.6,32.4,29.79,WSW,258,5.0,14.0,88,0.00,,OVC022,0.01,86.00,VWS V14.00,2013-04-12 15:09:00,
2013-04-12 10:10:00,35.5,32.3,29.79,WNW,295,6.0,8.0,88,0.00,,OVC022,0.01,105.00,VWS V14.00,2013-04-12 15:10:00,
2013-04-12 10:11:00,35.6,32.4,29.79,NW,324,4.0,13.0,88,0.00,,OVC022,0.01,84.00,VWS V14.00,2013-04-12 15:11:00,
2013-04-12 10:14:00,35.6,32.4,29.79,NW,306,7.0,13.0,88,0.00,,OVC022,0.01,79.00,VWS V14.00,2013-04-12 15:14:00,
2013-04-12 10:15:00,35.6,32.4,29.79,WNW,303,5.0,14.0,88,0.00,,OVC022,0.01,91.00,VWS V14.00,2013-04-12 15:15:00,
2013-04-12 10:16:00,35.6,32.4,29.79,NW,312,8.0,14.0,88,0.00,,OVC022,0.01,88.00,VWS V14.00,2013-04-12 15:16:00,
2013-04-12 10:19:00,35.6,32.4,29.79,West,271,5.0,9.0,88,0.00,,OVC022,0.01,118.00,VWS V14.00,2013-04-12 15:19:00,
2013-04-12 10:20:00,35.5,32.0,29.80,NW,314,7.0,9.0,87,0.00,,OVC024,0.01,107.00,VWS V14.00,2013-04-12 15:20:00,
2013-04-12 10:21:00,35.5,32.0,29.80,West,271,8.0,9.0,87,0.00,,OVC024,0.01,91.00,VWS V14.00,2013-04-12 15:21:00,
2013-04-12 10:24:00,35.5,32.3,29.80,WNW,300,7.0,10.0,88,0.00,,OVC024,0.01,104.00,VWS V14.00,2013-04-12 15:24:00,
2013-04-12 10:25:00,35.5,32.3,29.80,WNW,292,5.0,10.0,88,0.00,,OVC024,0.01,88.00,VWS V14.00,2013-04-12 15:25:00,
2013-04-12 10:26:00,35.5,32.0,29.80,WNW,284,8.0,10.0,87,0.00,,OVC024,0.01,88.00,VWS V14.00,2013-04-12 15:26:00,
2013-04-12 10:29:00,35.5,32.0,29.80,NW,304,9.0,9.0,87,0.00,,OVC024,0.01,141.00,VWS V14.00,2013-04-12 15:29:00,
2013-04-12 10:30:00,35.5,32.3,29.81,WNW,298,7.0,13.0,88,0.00,,OVC015,0.01,139.00,VWS V14.00,2013-04-12 15:30:00,
2013-04-12 10:31:00,35.5,32.0,29.80,NW,315,10.0,10.0,87,0.00,,OVC024,0.01,125.00,VWS V14.00,2013-04-12 15:31:00,
2013-04-12 10:32:00,35.5,32.3,29.80,WNW,294,6.0,13.0,88,0.00,,OVC024,0.01,123.00,VWS V14.00,2013-04-12 15:32:00,
2013-04-12 10:35:00,35.6,32.4,29.80,WNW,303,3.0,11.0,88,0.00,,OVC024,0.01,107.00,VWS V14.00,2013-04-12 15:35:00,
2013-04-12 10:36:00,35.6,32.1,29.81,WNW,290,9.0,11.0,87,0.00,,OVC024,0.01,107.00,VWS V14.00,2013-04-12 15:36:00,
2013-04-12 10:37:00,35.6,32.1,29.81,NW,325,9.0,11.0,87,0.00,,OVC024,0.01,109.00,VWS V14.00,2013-04-12 15:37:00,
2013-04-12 10:40:00,35.6,32.1,29.81,NW,316,5.0,15.0,87,0.00,,OVC024,0.01,121.00,VWS V14.00,2013-04-12 15:40:00,
2013-04-12 10:41:00,35.7,32.2,29.81,NW,309,9.0,15.0,87,0.00,,OVC024,0.01,120.00,VWS V14.00,2013-04-12 15:41:00,
2013-04-12 10:42:00,35.7,32.2,29.81,WNW,296,9.0,15.0,87,0.00,,OVC024,0.01,120.00,VWS V14.00,2013-04-12 15:42:00,
2013-04-12 10:45:00,35.7,31.9,29.81,WNW,286,10.0,10.0,86,0.00,,OVC024,0.01,132.00,VWS V14.00,2013-04-12 15:45:00,
2013-04-12 10:47:00,35.7,31.9,29.81,WNW,293,7.0,12.0,86,0.00,,OVC024,0.01,137.00,VWS V14.00,2013-04-12 15:47:00,
2013-04-12 10:50:00,35.7,31.9,29.81,NW,315,11.0,18.0,86,0.00,,OVC024,0.01,116.00,VWS V14.00,2013-04-12 15:50:00,
2013-04-12 10:52:00,35.7,31.9,29.82,WNW,297,9.0,18.0,86,0.00,,OVC024,0.01,121.00,VWS V14.00,2013-04-12 15:52:00,
2013-04-12 10:55:00,35.5,31.1,29.82,WNW,290,9.0,16.0,84,0.00,,OVC024,0.01,134.00,VWS V14.00,2013-04-12 15:55:00,
2013-04-12 10:57:00,35.4,31.1,29.82,NW,316,7.0,17.0,84,0.00,,OVC024,0.01,148.00,VWS V14.00,2013-04-12 15:57:00,
2013-04-12 11:00:00,35.3,31.2,29.82,NW,315,7.0,17.0,85,0.00,,OVC015,0.01,139.00,VWS V14.00,2013-04-12 16:00:00,
2013-04-12 11:02:00,35.4,31.6,29.82,WNW,287,8.0,15.0,86,0.00,,OVC022,0.01,142.00,VWS V14.00,2013-04-12 16:02:00,
2013-04-12 11:03:00,35.4,31.4,29.82,WNW,288,9.0,20.0,85,0.00,,OVC022,0.01,135.00,VWS V14.00,2013-04-12 16:03:00,
2013-04-12 11:05:00,35.4,31.4,29.83,WNW,286,10.0,20.0,85,0.00,,OVC015,0.01,128.00,VWS V14.00,2013-04-12 16:05:00,
2013-04-12 11:07:00,35.4,31.1,29.82,WNW,290,6.0,17.0,84,0.00,,OVC022,0.01,128.00,VWS V14.00,2013-04-12 16:07:00,
2013-04-12 11:08:00,35.3,31.0,29.83,NW,310,10.0,17.0,84,0.00,,OVC022,0.01,141.00,VWS V14.00,2013-04-12 16:08:00,
2013-04-12 11:10:00,35.3,31.0,29.83,WNW,286,12.0,17.0,84,0.00,,OVC015,0.01,139.00,VWS V14.00,2013-04-12 16:10:00,
2013-04-12 11:12:00,35.4,31.1,29.83,NW,319,5.0,24.0,84,0.00,,OVC022,0.01,134.00,VWS V14.00,2013-04-12 16:12:00,
2013-04-12 11:13:00,35.4,31.4,29.83,NW,311,14.0,24.0,85,0.00,,OVC022,0.01,134.00,VWS V14.00,2013-04-12 16:13:00,
2013-04-12 11:14:00,35.4,31.4,29.83,WNW,292,11.0,24.0,85,0.00,,OVC022,0.01,134.00,VWS V14.00,2013-04-12 16:14:00,
2013-04-12 11:15:00,35.5,31.5,29.83,NW,313,10.0,24.0,85,0.00,,OVC015,0.01,134.00,VWS V14.00,2013-04-12 16:15:00,
2013-04-12 11:17:00,35.5,31.1,29.83,NW,319,14.0,14.0,84,0.00,,OVC022,0.01,156.00,VWS V14.00,2013-04-12 16:17:00,
2013-04-12 11:18:00,35.5,31.1,29.83,NW,319,12.0,18.0,84,0.00,,OVC022,0.01,156.00,VWS V14.00,2013-04-12 16:18:00,
2013-04-12 11:19:00,35.5,31.5,29.83,WNW,293,6.0,18.0,85,0.00,,OVC022,0.01,174.00,VWS V14.00,2013-04-12 16:19:00,
2013-04-12 11:20:00,35.5,31.5,29.83,WNW,284,6.0,18.0,85,0.00,,OVC015,0.01,174.00,VWS V14.00,2013-04-12 16:20:00,
2013-04-12 11:22:00,35.6,31.2,29.83,WNW,286,7.0,17.0,84,0.00,,OVC021,0.01,169.00,VWS V14.00,2013-04-12 16:22:00,
2013-04-12 11:23:00,35.7,31.4,29.83,NW,304,9.0,17.0,84,0.00,,OVC021,0.01,169.00,VWS V14.00,2013-04-12 16:23:00,
2013-04-12 11:24:00,35.6,31.2,29.83,WNW,294,8.0,8.0,84,0.00,,OVC021,0.01,190.00,VWS V14.00,2013-04-12 16:24:00,
2013-04-12 11:25:00,35.6,31.2,29.83,WNW,293,4.0,17.0,84,0.00,,OVC015,0.01,190.00,VWS V14.00,2013-04-12 16:25:00,
2013-04-12 11:27:00,35.8,31.7,29.83,NW,313,8.0,18.0,85,0.00,,OVC021,0.01,278.00,VWS V14.00,2013-04-12 16:27:00,
2013-04-12 11:28:00,35.9,31.8,29.83,West,274,7.0,18.0,85,0.00,,OVC021,0.01,278.00,VWS V14.00,2013-04-12 16:28:00,
2013-04-12 11:29:00,36.0,31.9,29.83,NW,322,8.0,8.0,85,0.00,,OVC021,0.01,294.00,VWS V14.00,2013-04-12 16:29:00,
2013-04-12 11:30:00,35.9,31.8,29.83,NW,320,7.0,18.0,85,0.00,,OVC015,0.01,294.00,VWS V14.00,2013-04-12 16:30:00,
2013-04-12 11:32:00,36.5,32.4,29.83,NNW,339,6.0,21.0,85,0.00,,OVC021,0.01,388.00,VWS V14.00,2013-04-12 16:32:00,
2013-04-12 11:33:00,36.5,32.4,29.83,NW,320,11.0,21.0,85,0.00,,OVC021,0.01,336.00,VWS V14.00,2013-04-12 16:33:00,
2013-04-12 11:34:00,36.7,32.9,29.83,NW,309,6.0,8.0,86,0.00,,OVC021,0.01,336.00,VWS V14.00,2013-04-12 16:34:00,
2013-04-12 11:35:00,36.6,32.5,29.83,WNW,298,5.0,21.0,85,0.00,,OVC015,0.01,336.00,VWS V14.00,2013-04-12 16:35:00,
2013-04-12 11:37:00,36.9,32.5,29.83,NW,304,11.0,22.0,84,0.00,,OVC021,0.01,149.00,VWS V14.00,2013-04-12 16:37:00,
2013-04-12 11:38:00,36.8,32.4,29.83,WNW,298,6.0,22.0,84,0.00,,OVC021,0.01,142.00,VWS V14.00,2013-04-12 16:38:00,
2013-04-12 11:39:00,36.8,32.4,29.83,NW,311,8.0,10.0,84,0.00,,OVC021,0.01,137.00,VWS V14.00,2013-04-12 16:39:00,
2013-04-12 11:40:00,36.9,32.5,29.83,West,269,8.0,22.0,84,0.00,,OVC015,0.01,137.00,VWS V14.00,2013-04-12 16:40:00,
2013-04-12 11:42:00,36.6,31.9,29.83,NW,320,8.0,17.0,83,0.00,,OVC021,0.01,172.00,VWS V14.00,2013-04-12 16:42:00,
2013-04-12 11:43:00,36.6,31.9,29.83,WNW,301,11.0,17.0,83,0.00,,OVC021,0.01,141.00,VWS V14.00,2013-04-12 16:43:00,
2013-04-12 11:44:00,36.6,31.9,29.83,WNW,301,11.0,17.0,83,0.00,,OVC021,0.01,141.00,VWS V14.00,2013-04-12 16:44:00,
2013-04-12 11:45:00,36.6,31.9,29.83,WNW,301,9.0,17.0,83,0.00,,OVC015,0.01,120.00,VWS V14.00,2013-04-12 16:45:00,
2013-04-12 11:48:00,36.4,32.0,29.84,NW,304,9.0,17.0,84,0.00,,OVC021,0.01,114.00,VWS V14.00,2013-04-12 16:48:00,
2013-04-12 11:49:00,36.3,31.9,29.83,NW,323,12.0,12.0,84,0.00,,OVC021,0.01,142.00,VWS V14.00,2013-04-12 16:49:00,
2013-04-12 11:50:00,36.3,31.9,29.83,NNW,333,8.0,18.0,84,0.00,,OVC015,0.01,125.00,VWS V14.00,2013-04-12 16:50:00,
2013-04-12 11:53:00,36.1,32.0,29.84,NNW,340,4.0,15.0,85,0.00,,OVC021,0.01,190.00,VWS V14.00,2013-04-12 16:53:00,
2013-04-12 11:54:00,36.1,32.0,29.84,NW,305,4.0,15.0,85,0.00,,OVC021,0.01,202.00,VWS V14.00,2013-04-12 16:54:00,
2013-04-12 11:55:00,36.1,32.0,29.84,NW,311,4.0,15.0,85,0.00,,OVC015,0.01,202.00,VWS V14.00,2013-04-12 16:55:00,
2013-04-12 11:58:00,36.3,32.2,29.84,NW,315,11.0,17.0,85,0.00,,OVC021,0.01,229.00,VWS V14.00,2013-04-12 16:58:00,
2013-04-12 11:59:00,36.4,32.3,29.84,WNW,303,8.0,17.0,85,0.00,,OVC021,0.01,229.00,VWS V14.00,2013-04-12 16:59:00,
2013-04-12 12:00:00,36.4,32.3,29.84,WNW,303,8.0,17.0,85,0.00,,OVC015,0.01,229.00,VWS V14.00,2013-04-12 17:00:00,
2013-04-12 12:04:00,36.4,32.0,29.84,West,269,2.0,10.0,84,0.00,,OVC021,0.01,98.00,VWS V14.00,2013-04-12 17:04:00,
2013-04-12 12:05:00,36.5,32.1,29.84,NW,307,7.0,11.0,84,0.00,,OVC021,0.01,111.00,VWS V14.00,2013-04-12 17:05:00,
2013-04-12 12:06:00,36.4,32.0,29.84,NNW,340,7.0,13.0,84,0.00,,OVC021,0.01,111.00,VWS V14.00,2013-04-12 17:06:00,
2013-04-12 12:09:00,36.2,31.8,29.84,WNW,290,8.0,11.0,84,0.00,,OVC021,0.01,142.00,VWS V14.00,2013-04-12 17:09:00,
2013-04-12 12:10:00,36.1,31.7,29.84,West,279,12.0,13.0,84,0.00,,OVC021,0.01,153.00,VWS V14.00,2013-04-12 17:10:00,
2013-04-12 12:11:00,36.1,31.7,29.84,WNW,294,8.0,17.0,84,0.00,,OVC021,0.01,160.00,VWS V14.00,2013-04-12 17:11:00,
2013-04-12 12:14:00,35.9,31.8,29.84,WNW,290,3.0,6.0,85,0.00,,OVC021,0.01,123.00,VWS V14.00,2013-04-12 17:14:00,
2013-04-12 12:15:00,35.9,31.8,29.84,West,276,6.0,8.0,85,0.00,,OVC021,0.01,114.00,VWS V14.00,2013-04-12 17:15:00,
2013-04-12 12:16:00,35.9,31.8,29.84,West,275,7.0,8.0,85,0.00,,OVC021,0.01,109.00,VWS V14.00,2013-04-12 17:16:00,
2013-04-12 12:19:00,35.8,31.7,29.84,NW,307,7.0,9.0,85,0.00,,OVC021,0.01,116.00,VWS V14.00,2013-04-12 17:19:00,
2013-04-12 12:20:00,35.8,31.7,29.84,West,281,4.0,9.0,85,0.00,,OVC021,0.01,116.00,VWS V14.00,2013-04-12 17:20:00,
2013-04-12 12:21:00,35.8,32.0,29.84,NNW,342,8.0,12.0,86,0.00,,OVC021,0.01,120.00,VWS V14.00,2013-04-12 17:21:00,
2013-04-12 12:25:00,35.7,31.6,29.84,WNW,283,4.0,10.0,85,0.00,,OVC021,0.01,127.00,VWS V14.00,2013-04-12 17:25:00,
2013-04-12 12:26:00,35.7,31.9,29.85,WNW,284,11.0,12.0,86,0.00,,OVC021,0.01,130.00,VWS V14.00,2013-04-12 17:26:00,
2013-04-12 12:30:00,35.6,31.8,29.85,NW,304,9.0,12.0,86,0.00,,OVC021,0.01,127.00,VWS V14.00,2013-04-12 17:30:00,
2013-04-12 12:31:00,35.6,31.8,29.85,West,277,9.0,12.0,86,0.00,,OVC021,0.01,125.00,VWS V14.00,2013-04-12 17:31:00,
2013-04-12 12:35:00,35.5,31.7,29.85,WNW,293,6.0,18.0,86,0.00,,OVC021,0.01,127.00,VWS V14.00,2013-04-12 17:35:00,
2013-04-12 12:37:00,35.4,31.6,29.85,WNW,290,10.0,18.0,86,0.00,,OVC021,0.01,153.00,VWS V14.00,2013-04-12 17:37:00,
2013-04-12 12:40:00,35.4,31.4,29.85,NNW,331,7.0,7.0,85,0.00,,OVC019,0.01,258.00,VWS V14.00,2013-04-12 17:40:00,
2013-04-12 12:42:00,35.5,31.7,29.85,NW,304,9.0,14.0,86,0.00,,OVC019,0.01,360.00,VWS V14.00,2013-04-12 17:42:00,
2013-04-12 12:45:00,35.7,31.9,29.85,NNW,339,9.0,14.0,86,0.00,,OVC015,0.01,434.00,VWS V14.00,2013-04-12 17:45:00,
2013-04-12 12:47:00,36.3,32.5,29.85,WNW,294,10.0,19.0,86,0.00,,OVC019,0.01,283.00,VWS V14.00,2013-04-12 17:47:00,
2013-04-12 12:50:00,36.5,32.4,29.85,WNW,302,9.0,19.0,85,0.00,,OVC015,0.01,202.00,VWS V14.00,2013-04-12 17:50:00,
2013-04-12 12:52:00,36.7,32.0,29.85,WNW,294,6.0,22.0,83,0.00,,OVC019,0.01,135.00,VWS V14.00,2013-04-12 17:52:00,
2013-04-12 12:53:00,36.6,31.6,29.85,NW,314,6.0,22.0,82,0.00,,OVC019,0.01,135.00,VWS V14.00,2013-04-12 17:53:00,
2013-04-12 12:55:00,36.7,32.0,29.85,WNW,285,10.0,22.0,83,0.00,,OVC015,0.01,148.00,VWS V14.00,2013-04-12 17:55:00,
2013-04-12 12:57:00,36.6,31.6,29.85,WNW,294,9.0,19.0,82,0.00,,OVC019,0.01,174.00,VWS V14.00,2013-04-12 17:57:00,
2013-04-12 12:59:00,36.5,31.5,29.86,NNW,327,8.0,19.0,82,0.00,,OVC019,0.01,257.00,VWS V14.00,2013-04-12 17:59:00,
2013-04-12 13:00:00,36.5,31.5,29.86,NW,305,12.0,19.0,82,0.00,,OVC015,0.01,257.00,VWS V14.00,2013-04-12 18:00:00,
2013-04-12 13:02:00,36.5,31.5,29.85,WNW,285,4.0,18.0,82,0.00,,OVC026,0.01,193.00,VWS V14.00,2013-04-12 18:02:00,
2013-04-12 13:04:00,36.5,31.8,29.85,WNW,288,6.0,9.0,83,0.00,,OVC026,0.01,142.00,VWS V14.00,2013-04-12 18:04:00,
2013-04-12 13:05:00,36.5,31.8,29.85,WNW,293,9.0,18.0,83,0.00,,OVC015,0.01,153.00,VWS V14.00,2013-04-12 18:05:00,
2013-04-12 13:07:00,36.5,31.8,29.85,NW,306,9.0,22.0,83,0.00,,OVC026,0.01,123.00,VWS V14.00,2013-04-12 18:07:00,
2013-04-12 13:09:00,36.5,32.1,29.85,NW,306,3.0,7.0,84,0.00,,OVC026,0.01,125.00,VWS V14.00,2013-04-12 18:09:00,
2013-04-12 13:10:00,36.5,31.8,29.85,West,269,6.0,22.0,83,0.00,,OVC015,0.01,118.00,VWS V14.00,2013-04-12 18:10:00,
2013-04-12 13:12:00,36.6,32.2,29.85,NW,311,6.0,16.0,84,0.00,,OVC026,0.01,202.00,VWS V14.00,2013-04-12 18:12:00,
2013-04-12 13:14:00,36.6,32.2,29.85,WNW,302,8.0,11.0,84,0.00,,OVC026,0.01,343.00,VWS V14.00,2013-04-12 18:14:00,
2013-04-12 13:15:00,36.6,32.2,29.85,NW,319,9.0,16.0,84,0.00,,OVC015,0.01,343.00,VWS V14.00,2013-04-12 18:15:00,
2013-04-12 13:17:00,36.9,32.5,29.85,WNW,286,9.0,13.0,84,0.00,,OVC026,0.01,501.00,VWS V14.00,2013-04-12 18:17:00,
2013-04-12 13:20:00,37.0,32.3,29.85,WNW,283,10.0,14.0,83,0.00,,OVC015,0.01,248.00,VWS V14.00,2013-04-12 18:20:00,
2013-04-12 13:23:00,37.1,32.1,29.85,West,276,4.0,13.0,82,0.00,,OVC026,0.01,211.00,VWS V14.00,2013-04-12 18:23:00,
2013-04-12 13:25:00,37.1,32.1,29.85,NW,317,8.0,13.0,82,0.00,,OVC015,0.01,199.00,VWS V14.00,2013-04-12 18:25:00,
2013-04-12 13:28:00,37.1,32.4,29.85,NW,306,5.0,15.0,83,0.00,,OVC026,0.01,172.00,VWS V14.00,2013-04-12 18:28:00,
2013-04-12 13:30:00,37.1,32.4,29.85,WNW,300,7.0,15.0,83,0.00,,OVC015,0.01,174.00,VWS V14.00,2013-04-12 18:30:00,
2013-04-12 13:35:00,36.9,31.9,29.85,WNW,290,13.0,15.0,82,0.00,,OVC015,0.01,250.00,VWS V14.00,2013-04-12 18:35:00,
2013-04-12 13:40:00,37.1,32.7,29.85,NW,310,7.0,15.0,84,0.00,,OVC015,0.01,295.00,VWS V14.00,2013-04-12 18:40:00,
2013-04-12 13:45:00,37.4,32.4,29.85,WNW,294,10.0,13.0,82,0.00,,OVC015,0.01,223.00,VWS V14.00,2013-04-12 18:45:00,
2013-04-12 13:50:00,37.3,32.6,29.86,WNW,295,4.0,16.0,83,0.00,,OVC015,0.01,336.00,VWS V14.00,2013-04-12 18:50:00,
2013-04-12 13:55:00,37.9,33.5,29.86,WNW,302,7.0,14.0,84,0.00,,OVC015,0.01,327.00,VWS V14.00,2013-04-12 18:55:00,
2013-04-12 14:00:00,38.1,32.5,29.86,NW,319,8.0,13.0,80,0.00,,OVC015,0.01,214.00,VWS V14.00,2013-04-12 19:00:00,
2013-04-12 14:05:00,38.1,32.5,29.86,WNW,301,3.0,12.0,80,0.00,,OVC015,0.01,186.00,VWS V14.00,2013-04-12 19:05:00,
2013-04-12 14:10:00,38.1,32.8,29.87,WNW,296,6.0,17.0,81,0.00,,OVC015,0.01,200.00,VWS V14.00,2013-04-12 19:10:00,
2013-04-12 14:15:00,37.9,32.3,29.87,WNW,302,5.0,16.0,80,0.00,,OVC015,0.01,237.00,VWS V14.00,2013-04-12 19:15:00,
2013-04-12 14:20:00,37.8,32.2,29.87,WNW,287,6.0,13.0,80,0.00,,OVC015,0.01,141.00,VWS V14.00,2013-04-12 19:20:00,
2013-04-12 14:25:00,37.7,32.1,29.88,WNW,288,6.0,14.0,80,0.00,,OVC015,0.01,186.00,VWS V14.00,2013-04-12 19:25:00,
2013-04-12 14:26:00,37.6,31.7,29.87,WNW,296,10.0,11.0,79,0.00,,OVC033,0.01,362.00,VWS V14.00,2013-04-12 19:26:00,
2013-04-12 14:27:00,37.5,31.9,29.88,West,276,6.0,11.0,80,0.00,,OVC033,0.01,399.00,VWS V14.00,2013-04-12 19:27:00,
2013-04-12 14:30:00,37.5,31.9,29.87,NNW,333,6.0,11.0,80,0.00,,OVC015,0.01,290.00,VWS V14.00,2013-04-12 19:30:00,
2013-04-12 14:31:00,37.7,32.1,29.88,West,279,2.0,13.0,80,0.00,,OVC033,0.01,345.00,VWS V14.00,2013-04-12 19:31:00,
2013-04-12 14:32:00,37.7,32.1,29.88,WNW,290,4.0,13.0,80,0.00,,OVC033,0.01,301.00,VWS V14.00,2013-04-12 19:32:00,
2013-04-12 14:35:00,37.8,31.9,29.87,WNW,291,11.0,13.0,79,0.00,,OVC015,0.01,237.00,VWS V14.00,2013-04-12 19:35:00,
2013-04-12 14:36:00,37.9,32.0,29.87,WNW,286,9.0,11.0,79,0.00,,OVC033,0.01,209.00,VWS V14.00,2013-04-12 19:36:00,
2013-04-12 14:37:00,37.9,32.0,29.87,WNW,284,3.0,11.0,79,0.00,,OVC033,0.01,220.00,VWS V14.00,2013-04-12 19:37:00,
2013-04-12 14:40:00,38.0,32.1,29.88,WNW,298,5.0,12.0,79,0.00,,OVC015,0.01,188.00,VWS V14.00,2013-04-12 19:40:00,
2013-04-12 14:41:00,38.1,32.2,29.88,NW,325,5.0,8.0,79,0.00,,OVC033,0.01,149.00,VWS V14.00,2013-04-12 19:41:00,
2013-04-12 14:42:00,38.1,32.2,29.88,West,275,3.0,8.0,79,0.00,,OVC033,0.01,149.00,VWS V14.00,2013-04-12 19:42:00,
2013-04-12 14:43:00,38.1,32.2,29.87,WNW,296,8.0,8.0,79,0.00,,OVC033,0.01,158.00,VWS V14.00,2013-04-12 19:43:00,
2013-04-12 14:45:00,38.1,32.2,29.88,WNW,302,7.0,10.0,79,0.00,,OVC015,0.01,172.00,VWS V14.00,2013-04-12 19:45:00,
2013-04-12 14:47:00,38.2,32.0,29.87,WNW,286,8.0,11.0,78,0.00,,OVC033,0.01,202.00,VWS V14.00,2013-04-12 19:47:00,
2013-04-12 14:48:00,38.2,32.0,29.88,WNW,288,5.0,11.0,78,0.00,,OVC033,0.01,197.00,VWS V14.00,2013-04-12 19:48:00,
2013-04-12 14:50:00,38.1,31.9,29.87,WNW,295,7.0,11.0,78,0.00,,OVC015,0.01,197.00,VWS V14.00,2013-04-12 19:50:00,
2013-04-12 14:52:00,38.1,31.5,29.87,West,278,11.0,14.0,77,0.00,,OVC033,0.01,155.00,VWS V14.00,2013-04-12 19:52:00,
2013-04-12 14:53:00,38.1,31.5,29.88,NNW,333,7.0,18.0,77,0.00,,OVC033,0.01,163.00,VWS V14.00,2013-04-12 19:53:00,
2013-04-12 14:55:00,38.1,31.5,29.88,WNW,302,10.0,18.0,77,0.00,,OVC015,0.01,169.00,VWS V14.00,2013-04-12 19:55:00,
2013-04-12 14:57:00,38.2,32.0,29.88,NW,311,6.0,11.0,78,0.00,,OVC033,0.01,167.00,VWS V14.00,2013-04-12 19:57:00,
2013-04-12 14:58:00,38.1,31.9,29.88,WNW,284,7.0,17.0,78,0.00,,OVC033,0.01,155.00,VWS V14.00,2013-04-12 19:58:00,
2013-04-12 15:00:00,38.1,31.5,29.88,NW,317,9.0,17.0,77,0.00,,OVC015,0.01,156.00,VWS V14.00,2013-04-12 20:00:00,
2013-04-12 15:02:00,38.1,31.5,29.87,NW,316,5.0,14.0,77,0.00,,OVC026,0.01,162.00,VWS V14.00,2013-04-12 20:02:00,
2013-04-12 15:03:00,38.1,31.5,29.88,WNW,290,12.0,14.0,77,0.00,,OVC026,0.01,167.00,VWS V14.00,2013-04-12 20:03:00,
2013-04-12 15:04:00,38.1,31.5,29.87,NW,304,7.0,9.0,77,0.00,,OVC026,0.01,176.00,VWS V14.00,2013-04-12 20:04:00,
2013-04-12 15:05:00,38.1,31.5,29.88,NW,315,9.0,14.0,77,0.00,,OVC015,0.01,176.00,VWS V14.00,2013-04-12 20:05:00,
2013-04-12 15:08:00,38.3,32.0,29.88,WNW,296,9.0,10.0,78,0.00,,OVC026,0.01,374.00,VWS V14.00,2013-04-12 20:08:00,
2013-04-12 15:09:00,38.4,32.2,29.88,NW,323,12.0,12.0,78,0.00,,OVC026,0.01,403.00,VWS V14.00,2013-04-12 20:09:00,
2013-04-12 15:10:00,38.4,32.2,29.88,NNW,328,10.0,10.0,78,0.00,,OVC015,0.01,403.00,VWS V14.00,2013-04-12 20:10:00,
2013-04-12 15:13:00,38.9,32.0,29.88,West,273,11.0,15.0,76,0.00,,OVC026,0.01,327.00,VWS V14.00,2013-04-12 20:13:00,
2013-04-12 15:14:00,39.0,32.7,29.88,WNW,282,7.0,10.0,78,0.00,,OVC026,0.01,264.00,VWS V14.00,2013-04-12 20:14:00,
2013-04-12 15:15:00,39.0,32.7,29.88,WNW,295,6.0,15.0,78,0.00,,OVC015,0.01,327.00,VWS V14.00,2013-04-12 20:15:00,
2013-04-12 15:18:00,39.2,32.0,29.88,West,275,3.0,16.0,75,0.00,,OVC026,0.01,163.00,VWS V14.00,2013-04-12 20:18:00,
2013-04-12 15:19:00,39.2,32.0,29.88,WNW,290,6.0,16.0,75,0.00,,OVC026,0.01,163.00,VWS V14.00,2013-04-12 20:19:00,
2013-04-12 15:20:00,39.2,32.0,29.88,WNW,295,5.0,16.0,75,0.00,,OVC015,0.01,163.00,VWS V14.00,2013-04-12 20:20:00,
2013-04-12 15:24:00,39.2,32.0,29.88,WNW,297,6.0,16.0,75,0.00,,OVC037,0.01,139.00,VWS V14.00,2013-04-12 20:24:00,
2013-04-12 15:25:00,39.2,32.0,29.88,NW,309,8.0,16.0,75,0.00,,OVC015,0.01,139.00,VWS V14.00,2013-04-12 20:25:00,
2013-04-12 15:29:00,38.8,31.6,29.88,West,277,10.0,14.0,75,0.00,,OVC037,0.01,292.00,VWS V14.00,2013-04-12 20:29:00,
2013-04-12 15:30:00,38.8,31.6,29.88,NNW,331,9.0,16.0,75,0.00,,OVC037,0.01,360.00,VWS V14.00,2013-04-12 20:30:00,
2013-04-12 15:34:00,39.1,32.5,29.88,WNW,289,6.0,16.0,77,0.00,,OVC037,0.01,239.00,VWS V14.00,2013-04-12 20:34:00,
2013-04-12 15:35:00,39.2,32.3,29.88,NW,304,6.0,12.0,76,0.00,,OVC037,0.01,214.00,VWS V14.00,2013-04-12 20:35:00,
2013-04-12 15:39:00,39.2,32.0,29.88,West,281,7.0,10.0,75,0.00,,OVC037,0.01,188.00,VWS V14.00,2013-04-12 20:39:00,
2013-04-12 15:40:00,39.2,32.0,29.88,WNW,283,6.0,12.0,75,0.00,,OVC039,0.01,181.00,VWS V14.00,2013-04-12 20:40:00,
2013-04-12 15:44:00,39.1,31.9,29.88,NW,304,4.0,5.0,75,0.00,,OVC039,0.01,105.00,VWS V14.00,2013-04-12 20:44:00,
2013-04-12 15:45:00,39.1,31.5,29.88,WNW,284,5.0,5.0,74,0.00,,OVC039,0.01,95.00,VWS V14.00,2013-04-12 20:45:00,
2013-04-12 15:49:00,39.0,32.1,29.88,NW,309,8.0,8.0,76,0.00,,OVC039,0.01,134.00,VWS V14.00,2013-04-12 20:49:00,
2013-04-12 15:50:00,39.0,32.1,29.88,NNW,344,9.0,10.0,76,0.00,,OVC039,0.01,127.00,VWS V14.00,2013-04-12 20:50:00,
2013-04-12 15:54:00,38.9,31.3,29.88,NW,306,5.0,13.0,74,0.00,,OVC039,0.01,102.00,VWS V14.00,2013-04-12 20:54:00,
2013-04-12 15:55:00,38.9,31.3,29.88,NW,306,8.0,13.0,74,0.00,,OVC039,0.01,102.00,VWS V14.00,2013-04-12 20:55:00,
2013-04-12 15:59:00,38.8,31.6,29.88,NW,326,7.0,12.0,75,0.00,,OVC039,0.01,123.00,VWS V14.00,2013-04-12 20:59:00,
2013-04-12 16:00:00,38.8,31.6,29.88,WNW,295,4.0,12.0,75,0.00,,OVC039,0.01,123.00,VWS V14.00,2013-04-12 21:00:00,
2013-04-12 16:04:00,38.8,31.9,29.89,NW,315,4.0,5.0,76,0.00,,OVC040,0.01,84.00,VWS V14.00,2013-04-12 21:04:00,
2013-04-12 16:05:00,38.7,31.8,29.89,West,274,7.0,8.0,76,0.00,,OVC040,0.01,84.00,VWS V14.00,2013-04-12 21:05:00,
2013-04-12 16:10:00,38.7,32.1,29.88,WNW,286,10.0,12.0,77,0.00,,OVC040,0.01,54.00,VWS V14.00,2013-04-12 21:10:00,
2013-04-12 16:11:00,38.6,32.0,29.88,WNW,295,10.0,12.0,77,0.00,,OVC040,0.01,63.00,VWS V14.00,2013-04-12 21:11:00,
2013-04-12 16:15:00,38.3,31.7,29.89,WNW,285,6.0,13.0,77,0.00,,OVC040,0.01,102.00,VWS V14.00,2013-04-12 21:15:00,
2013-04-12 16:16:00,38.3,31.7,29.89,NW,305,6.0,13.0,77,0.00,,OVC040,0.01,100.00,VWS V14.00,2013-04-12 21:16:00,
2013-04-12 16:20:00,38.2,32.0,29.89,West,281,3.0,9.0,78,0.00,,OVC042,0.01,79.00,VWS V14.00,2013-04-12 21:20:00,
2013-04-12 16:21:00,38.1,31.5,29.89,WNW,288,9.0,10.0,77,0.00,,OVC042,0.01,84.00,VWS V14.00,2013-04-12 21:21:00,
2013-04-12 16:25:00,38.0,31.4,29.89,West,261,10.0,14.0,77,0.00,,OVC042,0.01,88.00,VWS V14.00,2013-04-12 21:25:00,
2013-04-12 16:27:00,37.9,31.0,29.89,WNW,291,9.0,14.0,76,0.00,,OVC042,0.01,79.00,VWS V14.00,2013-04-12 21:27:00,
2013-04-12 16:30:00,37.9,31.4,29.89,WNW,286,4.0,8.0,77,0.00,,OVC042,0.01,86.00,VWS V14.00,2013-04-12 21:30:00,
2013-04-12 16:32:00,37.9,31.4,29.89,NW,323,8.0,8.0,77,0.00,,OVC042,0.01,93.00,VWS V14.00,2013-04-12 21:32:00,
2013-04-12 16:33:00,37.9,31.4,29.89,WSW,239,3.0,9.0,77,0.00,,OVC042,0.01,95.00,VWS V14.00,2013-04-12 21:33:00,
2013-04-12 16:35:00,37.9,31.7,29.89,WNW,291,4.0,8.0,78,0.00,,OVC042,0.01,120.00,VWS V14.00,2013-04-12 21:35:00,
2013-04-12 16:37:00,37.9,31.7,29.90,WNW,292,3.0,8.0,78,0.00,,OVC042,0.01,134.00,VWS V14.00,2013-04-12 21:37:00,
2013-04-12 16:38:00,38.0,31.8,29.90,West,266,5.0,8.0,78,0.00,,OVC042,0.01,135.00,VWS V14.00,2013-04-12 21:38:00,
2013-04-12 16:40:00,38.1,31.5,29.89,West,276,7.0,10.0,77,0.00,,OVC036,0.01,100.00,VWS V14.00,2013-04-12 21:40:00,
2013-04-12 16:41:00,38.1,31.5,29.89,WNW,285,11.0,11.0,77,0.00,,OVC036,0.01,91.00,VWS V14.00,2013-04-12 21:41:00,
2013-04-12 16:42:00,38.2,32.0,29.89,WNW,292,7.0,11.0,78,0.00,,OVC036,0.01,79.00,VWS V14.00,2013-04-12 21:42:00,
2013-04-12 16:43:00,38.2,32.0,29.89,NW,310,11.0,15.0,78,0.00,,OVC036,0.01,70.00,VWS V14.00,2013-04-12 21:43:00,
2013-04-12 16:45:00,38.2,31.6,29.89,West,270,8.0,13.0,77,0.00,,OVC036,0.01,67.00,VWS V14.00,2013-04-12 21:45:00,
2013-04-12 16:46:00,38.2,31.6,29.90,West,272,8.0,13.0,77,0.00,,OVC036,0.01,69.00,VWS V14.00,2013-04-12 21:46:00,
2013-04-12 16:47:00,38.3,31.7,29.90,West,280,4.0,14.0,77,0.00,,OVC036,0.01,69.00,VWS V14.00,2013-04-12 21:47:00,
2013-04-12 16:48:00,38.3,31.7,29.90,NNW,338,10.0,14.0,77,0.00,,OVC036,0.01,67.00,VWS V14.00,2013-04-12 21:48:00,
2013-04-12 16:50:00,38.2,31.6,29.90,WNW,302,10.0,10.0,77,0.00,,OVC036,0.01,54.00,VWS V14.00,2013-04-12 21:50:00,
2013-04-12 16:52:00,38.2,31.6,29.90,WSW,254,5.0,10.0,77,0.00,,OVC036,0.01,49.00,VWS V14.00,2013-04-12 21:52:00,
2013-04-12 16:53:00,38.2,31.3,29.90,WNW,286,6.0,12.0,76,0.00,,OVC036,0.01,47.00,VWS V14.00,2013-04-12 21:53:00,
2013-04-12 16:55:00,38.2,31.3,29.90,West,269,7.0,9.0,76,0.00,,OVC036,0.01,47.00,VWS V14.00,2013-04-12 21:55:00,
2013-04-12 16:57:00,38.2,31.3,29.90,West,261,6.0,9.0,76,0.00,,OVC036,0.01,47.00,VWS V14.00,2013-04-12 21:57:00,
2013-04-12 16:58:00,38.2,31.3,29.90,West,269,7.0,9.0,76,0.00,,OVC036,0.01,49.00,VWS V14.00,2013-04-12 21:58:00,
2013-04-12 17:00:00,38.1,31.2,29.90,West,273,7.0,10.0,76,0.00,,OVC015,0.01,49.00,VWS V14.00,2013-04-12 22:00:00,
2013-04-12 17:01:00,38.1,31.2,29.90,West,265,8.0,11.0,76,0.00,,OVC034,0.01,42.00,VWS V14.00,2013-04-12 22:01:00,
2013-04-12 17:02:00,38.0,31.1,29.90,WNW,296,6.0,11.0,76,0.00,,OVC034,0.01,40.00,VWS V14.00,2013-04-12 22:02:00,
2013-04-12 17:03:00,38.0,31.1,29.90,West,266,2.0,11.0,76,0.00,,OVC034,0.01,42.00,VWS V14.00,2013-04-12 22:03:00,
2013-04-12 17:05:00,38.0,31.4,29.90,West,269,4.0,11.0,77,0.00,,OVC015,0.01,44.00,VWS V14.00,2013-04-12 22:05:00,
2013-04-12 17:06:00,38.0,31.4,29.90,WSW,257,3.0,8.0,77,0.00,,OVC034,0.01,53.00,VWS V14.00,2013-04-12 22:06:00,
2013-04-12 17:07:00,38.0,31.4,29.90,West,270,8.0,10.0,77,0.00,,OVC034,0.01,53.00,VWS V14.00,2013-04-12 22:07:00,
2013-04-12 17:08:00,38.0,31.4,29.90,West,274,8.0,10.0,77,0.00,,OVC034,0.01,54.00,VWS V14.00,2013-04-12 22:08:00,
2013-04-12 17:09:00,38.0,31.4,29.90,West,263,8.0,11.0,77,0.00,,OVC034,0.01,54.00,VWS V14.00,2013-04-12 22:09:00,
2013-04-12 17:10:00,38.0,31.4,29.90,SW,229,6.0,11.0,77,0.00,,OVC015,0.01,54.00,VWS V14.00,2013-04-12 22:10:00,
2013-04-12 17:12:00,37.9,31.4,29.90,WNW,290,5.0,9.0,77,0.00,,OVC034,0.01,63.00,VWS V14.00,2013-04-12 22:12:00,
2013-04-12 17:13:00,37.9,31.4,29.90,WNW,286,3.0,9.0,77,0.00,,OVC034,0.01,76.00,VWS V14.00,2013-04-12 22:13:00,
2013-04-12 17:14:00,37.9,31.4,29.90,WNW,286,2.0,9.0,77,0.00,,OVC034,0.01,81.00,VWS V14.00,2013-04-12 22:14:00,
2013-04-12 17:15:00,37.9,31.4,29.90,WNW,286,2.0,9.0,77,0.00,,OVC015,0.01,81.00,VWS V14.00,2013-04-12 22:15:00,
2013-04-12 17:17:00,38.0,31.4,29.90,WNW,288,4.0,10.0,77,0.00,,OVC034,0.01,91.00,VWS V14.00,2013-04-12 22:17:00,
2013-04-12 17:18:00,38.0,31.4,29.90,WNW,288,6.0,10.0,77,0.00,,OVC034,0.01,104.00,VWS V14.00,2013-04-12 22:18:00,
2013-04-12 17:19:00,38.0,31.4,29.90,WNW,282,7.0,13.0,77,0.00,,OVC034,0.01,104.00,VWS V14.00,2013-04-12 22:19:00,
2013-04-12 17:20:00,38.0,31.4,29.90,WNW,282,7.0,13.0,77,0.00,,OVC015,0.01,104.00,VWS V14.00,2013-04-12 22:20:00,
2013-04-12 17:22:00,38.1,31.5,29.90,WNW,295,6.0,11.0,77,0.00,,OVC036,0.01,95.00,VWS V14.00,2013-04-12 22:22:00,
2013-04-12 17:23:00,38.1,31.5,29.90,West,281,9.0,12.0,77,0.00,,OVC036,0.01,81.00,VWS V14.00,2013-04-12 22:23:00,
2013-04-12 17:24:00,38.2,31.6,29.90,WNW,290,4.0,12.0,77,0.00,,OVC036,0.01,70.00,VWS V14.00,2013-04-12 22:24:00,
2013-04-12 17:25:00,38.2,31.6,29.90,WNW,290,4.0,12.0,77,0.00,,OVC015,0.01,70.00,VWS V14.00,2013-04-12 22:25:00,
2013-04-12 17:27:00,38.2,31.3,29.90,West,272,7.0,10.0,76,0.00,,OVC036,0.01,39.00,VWS V14.00,2013-04-12 22:27:00,
2013-04-12 17:28:00,38.2,31.6,29.90,WNW,302,3.0,10.0,77,0.00,,OVC036,0.01,42.00,VWS V14.00,2013-04-12 22:28:00,
2013-04-12 17:29:00,38.2,31.6,29.90,West,262,5.0,10.0,77,0.00,,OVC036,0.01,42.00,VWS V14.00,2013-04-12 22:29:00,
2013-04-12 17:30:00,38.2,31.6,29.90,West,262,5.0,10.0,77,0.00,,OVC015,0.01,42.00,VWS V14.00,2013-04-12 22:30:00,
2013-04-12 17:32:00,38.2,31.6,29.91,WNW,286,6.0,11.0,77,0.00,,OVC036,0.01,42.00,VWS V14.00,2013-04-12 22:32:00,
2013-04-12 17:33:00,38.2,31.6,29.91,WNW,294,6.0,14.0,77,0.00,,OVC036,0.01,39.00,VWS V14.00,2013-04-12 22:33:00,
2013-04-12 17:34:00,38.2,31.6,29.91,WNW,302,7.0,14.0,77,0.00,,OVC036,0.01,39.00,VWS V14.00,2013-04-12 22:34:00,
2013-04-12 17:35:00,38.2,31.6,29.91,WNW,302,7.0,14.0,77,0.00,,OVC015,0.01,39.00,VWS V14.00,2013-04-12 22:35:00,
2013-04-12 17:37:00,38.0,31.4,29.91,WNW,298,7.0,14.0,77,0.00,,OVC036,0.01,39.00,VWS V14.00,2013-04-12 22:37:00,
2013-04-12 17:39:00,38.0,31.4,29.91,West,270,8.0,14.0,77,0.00,,OVC036,0.01,37.00,VWS V14.00,2013-04-12 22:39:00,
2013-04-12 17:40:00,38.0,31.4,29.91,NW,323,7.0,14.0,77,0.00,,OVC015,0.01,37.00,VWS V14.00,2013-04-12 22:40:00,
2013-04-12 17:42:00,37.9,31.4,29.91,WNW,300,12.0,16.0,77,0.00,,OVC034,0.01,37.00,VWS V14.00,2013-04-12 22:42:00,
2013-04-12 17:44:00,37.8,31.2,29.91,WNW,286,5.0,16.0,77,0.00,,OVC034,0.01,39.00,VWS V14.00,2013-04-12 22:44:00,
2013-04-12 17:45:00,37.8,31.2,29.91,WNW,286,5.0,16.0,77,0.00,,OVC015,0.01,39.00,VWS V14.00,2013-04-12 22:45:00,
2013-04-12 17:47:00,37.7,31.5,29.91,West,268,1.0,11.0,78,0.00,,OVC034,0.01,39.00,VWS V14.00,2013-04-12 22:47:00,
2013-04-12 17:49:00,37.7,31.5,29.91,WSW,254,3.0,11.0,78,0.00,,OVC034,0.01,42.00,VWS V14.00,2013-04-12 22:49:00,
2013-04-12 17:50:00,37.7,31.5,29.91,West,281,2.0,4.0,78,0.00,,OVC034,0.01,42.00,VWS V14.00,2013-04-12 22:50:00,
2013-04-12 17:52:00,37.7,31.5,29.91,West,265,4.0,5.0,78,0.00,,OVC034,0.01,51.00,VWS V14.00,2013-04-12 22:52:00,
2013-04-12 17:54:00,37.7,31.5,29.91,WNW,288,3.0,4.0,78,0.00,,OVC034,0.01,56.00,VWS V14.00,2013-04-12 22:54:00,
2013-04-12 17:55:00,37.7,31.5,29.91,WNW,290,4.0,4.0,78,0.00,,OVC034,0.01,60.00,VWS V14.00,2013-04-12 22:55:00,
2013-04-12 17:57:00,37.7,31.5,29.91,WSW,257,0.0,11.0,78,0.00,,OVC034,0.01,63.00,VWS V14.00,2013-04-12 22:57:00,
2013-04-12 17:59:00,37.7,31.1,29.91,NW,314,5.0,5.0,77,0.00,,OVC034,0.01,60.00,VWS V14.00,2013-04-12 22:59:00,
2013-04-12 18:00:00,37.7,31.1,29.91,WNW,296,5.0,12.0,77,0.00,,OVC033,0.01,56.00,VWS V14.00,2013-04-12 23:00:00,
2013-04-12 18:02:00,37.7,31.1,29.91,NNW,329,7.0,12.0,77,0.00,,OVC033,0.01,49.00,VWS V14.00,2013-04-12 23:02:00,
2013-04-12 18:04:00,37.7,31.1,29.91,WNW,292,5.0,11.0,77,0.00,,OVC033,0.01,39.00,VWS V14.00,2013-04-12 23:04:00,
2013-04-12 18:05:00,37.7,31.1,29.91,WNW,298,9.0,11.0,77,0.00,,OVC033,0.01,37.00,VWS V14.00,2013-04-12 23:05:00,
2013-04-12 18:06:00,37.7,31.1,29.91,West,266,6.0,11.0,77,0.00,,OVC033,0.01,35.00,VWS V14.00,2013-04-12 23:06:00,
2013-04-12 18:07:00,37.7,31.1,29.91,WNW,298,7.0,11.0,77,0.00,,OVC033,0.01,30.00,VWS V14.00,2013-04-12 23:07:00,
2013-04-12 18:09:00,37.7,31.1,29.92,West,265,10.0,10.0,77,0.00,,OVC033,0.01,28.00,VWS V14.00,2013-04-12 23:09:00,
2013-04-12 18:10:00,37.6,31.1,29.92,West,265,5.0,10.0,77,0.00,,OVC033,0.01,28.00,VWS V14.00,2013-04-12 23:10:00,
2013-04-12 18:11:00,37.7,31.5,29.91,WNW,303,9.0,11.0,78,0.00,,OVC033,0.01,26.00,VWS V14.00,2013-04-12 23:11:00,
2013-04-12 18:13:00,37.5,31.3,29.92,WNW,292,5.0,12.0,78,0.00,,OVC033,0.01,28.00,VWS V14.00,2013-04-12 23:13:00,
2013-04-12 18:14:00,37.5,31.3,29.92,West,271,6.0,11.0,78,0.00,,OVC033,0.01,28.00,VWS V14.00,2013-04-12 23:14:00,
2013-04-12 18:15:00,37.5,31.3,29.92,WNW,294,8.0,11.0,78,0.00,,OVC033,0.01,30.00,VWS V14.00,2013-04-12 23:15:00,
2013-04-12 18:16:00,37.4,30.9,29.92,West,264,9.0,11.0,77,0.00,,OVC033,0.01,30.00,VWS V14.00,2013-04-12 23:16:00,
2013-04-12 18:18:00,37.3,30.8,29.92,WNW,302,8.0,12.0,77,0.00,,OVC033,0.01,32.00,VWS V14.00,2013-04-12 23:18:00,
2013-04-12 18:20:00,37.2,30.7,29.92,WNW,288,6.0,10.0,77,0.00,,OVC033,0.01,33.00,VWS V14.00,2013-04-12 23:20:00,
2013-04-12 18:21:00,37.2,30.7,29.92,WNW,293,5.0,10.0,77,0.00,,OVC033,0.01,33.00,VWS V14.00,2013-04-12 23:21:00,
2013-04-12 18:22:00,37.2,30.7,29.92,WNW,291,5.0,10.0,77,0.00,,OVC033,0.01,33.00,VWS V14.00,2013-04-12 23:22:00,
2013-04-12 18:23:00,37.1,30.6,29.92,WNW,298,4.0,10.0,77,0.00,,OVC033,0.01,33.00,VWS V14.00,2013-04-12 23:23:00,
2013-04-12 18:25:00,37.1,30.6,29.92,West,275,9.0,13.0,77,0.00,,OVC033,0.01,35.00,VWS V14.00,2013-04-12 23:25:00,
2013-04-12 18:26:00,37.1,30.6,29.92,WNW,289,7.0,13.0,77,0.00,,OVC033,0.01,33.00,VWS V14.00,2013-04-12 23:26:00,
2013-04-12 18:28:00,37.0,30.5,29.92,WNW,294,3.0,13.0,77,0.00,,OVC033,0.01,33.00,VWS V14.00,2013-04-12 23:28:00,
2013-04-12 18:30:00,37.0,30.8,29.92,NW,308,9.0,12.0,78,0.00,,OVC033,0.01,28.00,VWS V14.00,2013-04-12 23:30:00,
2013-04-12 18:31:00,37.0,30.5,29.92,WNW,292,4.0,12.0,77,0.00,,OVC033,0.01,25.00,VWS V14.00,2013-04-12 23:31:00,
2013-04-12 18:33:00,37.0,30.8,29.92,WNW,288,7.0,12.0,78,0.00,,OVC033,0.01,23.00,VWS V14.00,2013-04-12 23:33:00,
2013-04-12 18:35:00,36.9,30.7,29.92,West,273,11.0,11.0,78,0.00,,OVC033,0.01,25.00,VWS V14.00,2013-04-12 23:35:00,
2013-04-12 18:37:00,36.9,30.7,29.92,West,266,7.0,12.0,78,0.00,,OVC033,0.01,25.00,VWS V14.00,2013-04-12 23:37:00,
2013-04-12 18:38:00,36.9,30.7,29.92,WNW,292,7.0,12.0,78,0.00,,OVC033,0.01,26.00,VWS V14.00,2013-04-12 23:38:00,
2013-04-12 18:39:00,36.9,31.0,29.92,West,270,7.0,12.0,79,0.00,,OVC033,0.01,26.00,VWS V14.00,2013-04-12 23:39:00,
2013-04-12 18:40:00,36.9,31.0,29.92,WNW,286,7.0,15.0,79,0.00,,OVC032,0.01,28.00,VWS V14.00,2013-04-12 23:40:00,
2013-04-12 18:42:00,36.9,31.0,29.92,NW,323,7.0,15.0,79,0.00,,OVC032,0.01,28.00,VWS V14.00,2013-04-12 23:42:00,
2013-04-12 18:43:00,36.9,31.0,29.92,WNW,296,6.0,15.0,79,0.00,,OVC032,0.01,26.00,VWS V14.00,2013-04-12 23:43:00,
2013-04-12 18:44:00,36.9,31.0,29.92,West,265,6.0,7.0,79,0.00,,OVC032,0.01,21.00,VWS V14.00,2013-04-12 23:44:00,
2013-04-12 18:45:00,36.9,31.0,29.92,NW,323,9.0,13.0,79,0.00,,OVC032,0.01,19.00,VWS V14.00,2013-04-12 23:45:00,
2013-04-12 18:47:00,36.9,31.0,29.92,WNW,290,6.0,13.0,79,0.00,,OVC032,0.01,16.00,VWS V14.00,2013-04-12 23:47:00,
2013-04-12 18:48:00,36.8,30.9,29.92,WNW,292,7.0,13.0,79,0.00,,OVC032,0.01,16.00,VWS V14.00,2013-04-12 23:48:00,
2013-04-12 18:49:00,36.9,31.0,29.92,WNW,283,9.0,9.0,79,0.00,,OVC032,0.01,16.00,VWS V14.00,2013-04-12 23:49:00,
2013-04-12 18:50:00,36.8,30.9,29.92,WNW,297,9.0,13.0,79,0.00,,OVC032,0.01,16.00,VWS V14.00,2013-04-12 23:50:00,
2013-04-12 18:53:00,36.8,30.9,29.92,WNW,300,3.0,13.0,79,0.00,,OVC032,0.01,16.00,VWS V14.00,2013-04-12 23:53:00,
2013-04-12 18:54:00,36.8,30.9,29.92,WNW,293,9.0,10.0,79,0.00,,OVC032,0.01,16.00,VWS V14.00,2013-04-12 23:54:00,
2013-04-12 18:55:00,36.7,30.8,29.92,West,276,6.0,10.0,79,0.00,,OVC032,0.01,18.00,VWS V14.00,2013-04-12 23:55:00,
2013-04-12 18:58:00,36.6,30.4,29.92,West,263,7.0,10.0,78,0.00,,OVC032,0.01,18.00,VWS V14.00,2013-04-12 23:58:00,
2013-04-12 18:59:00,36.6,30.4,29.92,WNW,302,4.0,11.0,78,0.00,,OVC032,0.01,18.00,VWS V14.00,2013-04-12 23:59:00,
2013-04-12 19:00:00,36.6,30.4,29.92,WNW,286,5.0,11.0,78,0.00,,OVC039,0.01,18.00,VWS V14.00,2013-04-13 00:00:00,
2013-04-12 19:03:00,36.5,30.3,29.93,NW,304,4.0,11.0,78,0.00,,OVC039,0.01,19.00,VWS V14.00,2013-04-13 00:03:00,
2013-04-12 19:04:00,36.5,30.6,29.93,NW,309,4.0,6.0,79,0.00,,OVC039,0.01,19.00,VWS V14.00,2013-04-13 00:04:00,
2013-04-12 19:05:00,36.5,30.6,29.93,West,279,6.0,11.0,79,0.00,,OVC015,0.01,19.00,VWS V14.00,2013-04-13 00:05:00,
2013-04-12 19:06:00,36.5,30.6,29.92,NW,316,3.0,6.0,79,0.00,,OVC039,0.01,19.00,VWS V14.00,2013-04-13 00:06:00,
2013-04-12 19:08:00,36.5,30.6,29.92,NW,319,2.0,6.0,79,0.00,,OVC039,0.01,18.00,VWS V14.00,2013-04-13 00:08:00,
2013-04-12 19:09:00,36.5,30.6,29.92,West,276,2.0,6.0,79,0.00,,OVC039,0.01,18.00,VWS V14.00,2013-04-13 00:09:00,
2013-04-12 19:10:00,36.5,30.6,29.92,West,276,2.0,6.0,79,0.00,,OVC015,0.01,18.00,VWS V14.00,2013-04-13 00:10:00,
2013-04-12 19:12:00,36.5,30.6,29.93,West,271,12.0,12.0,79,0.00,,OVC039,0.01,11.00,VWS V14.00,2013-04-13 00:12:00,
2013-04-12 19:14:00,36.4,30.2,29.92,NW,314,11.0,12.0,78,0.00,,OVC039,0.01,9.00,VWS V14.00,2013-04-13 00:14:00,
2013-04-12 19:15:00,36.4,30.2,29.92,NW,314,11.0,12.0,78,0.00,,OVC015,0.01,9.00,VWS V14.00,2013-04-13 00:15:00,
2013-04-12 19:17:00,36.4,30.5,29.93,NW,316,6.0,11.0,79,0.00,,OVC039,0.01,7.00,VWS V14.00,2013-04-13 00:17:00,
2013-04-12 19:19:00,36.3,30.4,29.93,WNW,300,6.0,6.0,79,0.00,,OVC039,0.01,5.00,VWS V14.00,2013-04-13 00:19:00,
2013-04-12 19:20:00,36.3,30.4,29.93,West,265,8.0,10.0,79,0.00,,OVC039,0.01,5.00,VWS V14.00,2013-04-13 00:20:00,
2013-04-12 19:22:00,36.3,30.1,29.93,WNW,294,5.0,10.0,78,0.00,,OVC039,0.01,5.00,VWS V14.00,2013-04-13 00:22:00,
2013-04-12 19:24:00,36.2,30.3,29.93,WNW,282,6.0,10.0,79,0.00,,OVC039,0.01,5.00,VWS V14.00,2013-04-13 00:24:00,
2013-04-12 19:25:00,36.2,30.3,29.93,NW,310,4.0,8.0,79,0.00,,OVC039,0.01,5.00,VWS V14.00,2013-04-13 00:25:00,
2013-04-12 19:27:00,36.2,30.3,29.93,West,279,2.0,8.0,79,0.00,,OVC039,0.01,5.00,VWS V14.00,2013-04-13 00:27:00,
2013-04-12 19:29:00,36.2,30.3,29.93,WNW,287,5.0,6.0,79,0.00,,OVC039,0.01,5.00,VWS V14.00,2013-04-13 00:29:00,
2013-04-12 19:30:00,36.2,30.3,29.93,WNW,284,6.0,10.0,79,0.00,,OVC039,0.01,5.00,VWS V14.00,2013-04-13 00:30:00,
2013-04-12 19:31:00,36.2,30.3,29.93,WNW,299,1.0,10.0,79,0.00,,OVC039,0.01,0.00,VWS V14.00,2013-04-13 00:31:00,
2013-04-12 19:32:00,36.2,30.3,29.93,WNW,290,4.0,10.0,79,0.00,,OVC039,0.01,0.00,VWS V14.00,2013-04-13 00:32:00,
2013-04-12 19:34:00,36.1,30.2,29.93,WNW,287,5.0,8.0,79,0.00,,OVC039,0.01,0.00,VWS V14.00,2013-04-13 00:34:00,
2013-04-12 19:35:00,36.1,30.2,29.93,WNW,300,3.0,8.0,79,0.00,,OVC039,0.01,0.00,VWS V14.00,2013-04-13 00:35:00,
2013-04-12 19:36:00,36.1,29.9,29.93,NW,304,5.0,8.0,78,0.00,,OVC039,0.01,0.00,VWS V14.00,2013-04-13 00:36:00,
2013-04-12 19:38:00,36.1,30.2,29.93,West,281,7.0,9.0,79,0.00,,OVC039,0.01,0.00,VWS V14.00,2013-04-13 00:38:00,
2013-04-12 19:39:00,36.1,29.9,29.93,WNW,290,6.0,13.0,78,0.00,,OVC039,0.01,0.00,VWS V14.00,2013-04-13 00:39:00,
2013-04-12 19:40:00,36.1,29.9,29.93,WNW,289,6.0,13.0,78,0.00,,OVC039,0.01,0.00,VWS V14.00,2013-04-13 00:40:00,
2013-04-12 19:41:00,36.0,29.8,29.93,WNW,290,6.0,13.0,78,0.00,,OVC039,0.01,0.00,VWS V14.00,2013-04-13 00:41:00,
2013-04-12 19:42:00,36.0,29.8,29.93,WNW,290,4.0,13.0,78,0.00,,OVC039,0.01,0.00,VWS V14.00,2013-04-13 00:42:00,
2013-04-12 19:44:00,36.0,29.8,29.93,WNW,285,5.0,5.0,78,0.00,,OVC039,0.01,0.00,VWS V14.00,2013-04-13 00:44:00,
2013-04-12 19:45:00,36.0,29.8,29.93,WNW,298,6.0,9.0,78,0.00,,OVC039,0.01,0.00,VWS V14.00,2013-04-13 00:45:00,
2013-04-12 19:47:00,35.9,29.7,29.93,NW,314,4.0,10.0,78,0.00,,OVC039,0.01,0.00,VWS V14.00,2013-04-13 00:47:00,
2013-04-12 19:48:00,36.0,29.8,29.93,WNW,298,5.0,10.0,78,0.00,,OVC039,0.01,0.00,VWS V14.00,2013-04-13 00:48:00,
2013-04-12 19:50:00,35.9,29.7,29.93,NW,315,7.0,13.0,78,0.00,,OVC039,0.01,0.00,VWS V14.00,2013-04-13 00:50:00,
2013-04-12 19:52:00,35.9,29.7,29.93,NW,315,6.0,13.0,78,0.00,,OVC039,0.01,0.00,VWS V14.00,2013-04-13 00:52:00,
2013-04-12 19:53:00,35.9,29.7,29.93,NW,309,7.0,13.0,78,0.00,,OVC039,0.01,0.00,VWS V14.00,2013-04-13 00:53:00,
2013-04-12 19:55:00,35.8,29.9,29.93,NW,311,4.0,7.0,79,0.00,,OVC039,0.01,0.00,VWS V14.00,2013-04-13 00:55:00,
2013-04-12 19:58:00,35.7,29.8,29.93,WNW,295,4.0,12.0,79,0.00,,OVC039,0.01,0.00,VWS V14.00,2013-04-13 00:58:00,
2013-04-12 20:00:00,35.7,30.1,29.93,West,275,5.0,6.0,80,0.00,,OVC039,0.01,0.00,VWS V14.00,2013-04-13 01:00:00,
2013-04-12 20:01:00,35.7,30.1,29.93,WNW,296,6.0,10.0,80,0.00,,OVC039,0.01,0.00,VWS V14.00,2013-04-13 01:01:00,
2013-04-12 20:03:00,35.5,30.0,29.93,WNW,302,11.0,11.0,80,0.00,,OVC039,0.01,0.00,VWS V14.00,2013-04-13 01:03:00,
2013-04-12 20:05:00,35.5,30.0,29.94,WNW,296,6.0,8.0,80,0.00,,OVC039,0.01,0.00,VWS V14.00,2013-04-13 01:05:00,
2013-04-12 20:07:00,35.5,30.0,29.94,North,351,5.0,13.0,80,0.00,,OVC039,0.01,0.00,VWS V14.00,2013-04-13 01:07:00,
2013-04-12 20:08:00,35.4,30.2,29.94,NW,314,4.0,13.0,81,0.00,,OVC039,0.01,0.00,VWS V14.00,2013-04-13 01:08:00,
2013-04-12 20:09:00,35.4,30.2,29.94,NNW,329,3.0,13.0,81,0.00,,OVC039,0.01,0.00,VWS V14.00,2013-04-13 01:09:00,
2013-04-12 20:10:00,35.3,30.1,29.94,NW,315,5.0,6.0,81,0.00,,OVC039,0.01,0.00,VWS V14.00,2013-04-13 01:10:00,
2013-04-12 20:12:00,35.3,29.8,29.94,NW,326,2.0,7.0,80,0.00,,OVC039,0.01,0.00,VWS V14.00,2013-04-13 01:12:00,
2013-04-12 20:13:00,35.2,29.7,29.94,WNW,294,10.0,10.0,80,0.00,,OVC039,0.01,0.00,VWS V14.00,2013-04-13 01:13:00,
2013-04-12 20:14:00,35.2,29.7,29.94,West,277,5.0,6.0,80,0.00,,OVC039,0.01,0.00,VWS V14.00,2013-04-13 01:14:00,
2013-04-12 20:15:00,35.2,29.7,29.94,NW,311,10.0,13.0,80,0.00,,OVC039,0.01,0.00,VWS V14.00,2013-04-13 01:15:00,
2013-04-12 20:17:00,35.1,29.6,29.94,WNW,292,6.0,13.0,80,0.00,,OVC039,0.01,0.00,VWS V14.00,2013-04-13 01:17:00,
2013-04-12 20:18:00,35.0,29.5,29.94,NW,307,8.0,14.0,80,0.00,,OVC039,0.01,0.00,VWS V14.00,2013-04-13 01:18:00,
2013-04-12 20:19:00,35.0,29.5,29.94,WNW,293,5.0,6.0,80,0.00,,OVC039,0.01,0.00,VWS V14.00,2013-04-13 01:19:00,
2013-04-12 20:20:00,35.0,29.5,29.94,NW,310,8.0,9.0,80,0.00,,OVC035,0.01,0.00,VWS V14.00,2013-04-13 01:20:00,
2013-04-12 20:23:00,34.9,29.4,29.95,NW,314,7.0,9.0,80,0.00,,OVC035,0.01,0.00,VWS V14.00,2013-04-13 01:23:00,
2013-04-12 20:24:00,34.9,29.4,29.95,WNW,301,6.0,9.0,80,0.00,,OVC035,0.01,0.00,VWS V14.00,2013-04-13 01:24:00,
2013-04-12 20:25:00,34.9,29.4,29.94,NW,315,8.0,11.0,80,0.00,,OVC035,0.01,0.00,VWS V14.00,2013-04-13 01:25:00,
2013-04-12 20:28:00,34.8,29.3,29.95,NW,310,6.0,13.0,80,0.00,,OVC035,0.01,0.00,VWS V14.00,2013-04-13 01:28:00,
2013-04-12 20:29:00,34.8,29.3,29.95,NW,315,7.0,13.0,80,0.00,,OVC035,0.01,0.00,VWS V14.00,2013-04-13 01:29:00,
2013-04-12 20:30:00,34.8,29.3,29.94,WNW,283,3.0,12.0,80,0.00,,OVC035,0.01,0.00,VWS V14.00,2013-04-13 01:30:00,
2013-04-12 20:34:00,34.7,29.2,29.95,West,280,1.0,12.0,80,0.00,,OVC035,0.01,0.00,VWS V14.00,2013-04-13 01:34:00,
2013-04-12 20:35:00,34.7,29.2,29.95,West,279,3.0,7.0,80,0.00,,OVC035,0.01,0.00,VWS V14.00,2013-04-13 01:35:00,
2013-04-12 20:39:00,34.7,28.5,29.95,NW,305,7.0,13.0,78,0.00,,OVC035,0.01,0.00,VWS V14.00,2013-04-13 01:39:00,
2013-04-12 20:40:00,34.7,28.5,29.94,WNW,291,6.0,8.0,78,0.00,,OVC032,0.01,0.00,VWS V14.00,2013-04-13 01:40:00,
2013-04-12 20:44:00,34.7,28.2,29.95,WNW,302,10.0,10.0,77,0.00,,OVC032,0.01,0.00,VWS V14.00,2013-04-13 01:44:00,
2013-04-12 20:45:00,34.7,28.2,29.95,WNW,300,5.0,10.0,77,0.00,,OVC032,0.01,0.00,VWS V14.00,2013-04-13 01:45:00,
2013-04-12 20:49:00,34.7,28.2,29.94,NW,324,4.0,4.0,77,0.00,,OVC032,0.01,0.00,VWS V14.00,2013-04-13 01:49:00,
2013-04-12 20:50:00,34.6,28.1,29.95,WNW,298,2.0,6.0,77,0.00,,OVC032,0.01,0.00,VWS V14.00,2013-04-13 01:50:00,
2013-04-12 20:51:00,34.6,28.1,29.95,NW,306,1.0,6.0,77,0.00,,OVC032,0.01,0.00,VWS V14.00,2013-04-13 01:51:00,
2013-04-12 20:54:00,34.6,28.1,29.95,NW,314,7.0,15.0,77,0.00,,OVC032,0.01,0.00,VWS V14.00,2013-04-13 01:54:00,
2013-04-12 20:55:00,34.6,28.1,29.95,WNW,300,4.0,15.0,77,0.00,,OVC032,0.01,0.00,VWS V14.00,2013-04-13 01:55:00,
2013-04-12 20:57:00,34.6,28.1,29.95,WNW,290,7.0,15.0,77,0.00,,OVC032,0.01,0.00,VWS V14.00,2013-04-13 01:57:00,
2013-04-12 20:59:00,34.6,28.1,29.95,WNW,294,8.0,8.0,77,0.00,,OVC032,0.01,0.00,VWS V14.00,2013-04-13 01:59:00,
2013-04-12 21:00:00,34.5,28.0,29.95,WNW,299,3.0,8.0,77,0.00,,OVC032,0.01,0.00,VWS V14.00,2013-04-13 02:00:00,
2013-04-12 21:02:00,34.5,28.0,29.95,WNW,303,7.0,10.0,77,0.00,,OVC030,0.01,0.00,VWS V14.00,2013-04-13 02:02:00,
2013-04-12 21:05:00,34.5,28.4,29.95,WNW,292,8.0,11.0,78,0.00,,OVC030,0.01,0.00,VWS V14.00,2013-04-13 02:05:00,
2013-04-12 21:07:00,34.4,28.0,29.95,NW,313,5.0,11.0,77,0.00,,OVC030,0.01,0.00,VWS V14.00,2013-04-13 02:07:00,
2013-04-12 21:10:00,34.4,28.3,29.95,NW,311,6.0,9.0,78,0.00,,OVC030,0.01,0.00,VWS V14.00,2013-04-13 02:10:00,
2013-04-12 21:11:00,34.4,28.3,29.95,NW,306,6.0,9.0,78,0.00,,OVC030,0.01,0.00,VWS V14.00,2013-04-13 02:11:00,
2013-04-12 21:12:00,34.4,28.3,29.95,NW,319,6.0,14.0,78,0.00,,OVC030,0.01,0.00,VWS V14.00,2013-04-13 02:12:00,
2013-04-12 21:15:00,34.3,28.2,29.95,NW,323,7.0,9.0,78,0.00,,OVC030,0.01,0.00,VWS V14.00,2013-04-13 02:15:00,
2013-04-12 21:16:00,34.3,27.9,29.95,West,279,9.0,13.0,77,0.00,,OVC030,0.01,0.00,VWS V14.00,2013-04-13 02:16:00,
2013-04-12 21:17:00,34.3,28.2,29.95,WNW,296,2.0,13.0,78,0.00,,OVC030,0.01,0.00,VWS V14.00,2013-04-13 02:17:00,
2013-04-12 21:20:00,34.2,28.1,29.95,West,265,5.0,10.0,78,0.00,,OVC032,0.01,0.00,VWS V14.00,2013-04-13 02:20:00,
2013-04-12 21:22:00,34.1,27.7,29.95,WNW,292,7.0,11.0,77,0.00,,OVC032,0.01,0.00,VWS V14.00,2013-04-13 02:22:00,
2013-04-12 21:25:00,34.1,27.7,29.95,WNW,282,7.0,11.0,77,0.00,,OVC032,0.01,0.00,VWS V14.00,2013-04-13 02:25:00,
2013-04-12 21:27:00,34.1,27.7,29.95,NW,325,11.0,11.0,77,0.00,,OVC032,0.01,0.00,VWS V14.00,2013-04-13 02:27:00,
2013-04-12 21:28:00,34.1,27.3,29.95,NW,313,8.0,13.0,76,0.00,,OVC032,0.01,0.00,VWS V14.00,2013-04-13 02:28:00,
2013-04-12 21:30:00,34.0,27.2,29.95,WNW,298,8.0,10.0,76,0.00,,OVC032,0.01,0.00,VWS V14.00,2013-04-13 02:30:00,
2013-04-12 21:32:00,34.0,27.2,29.96,West,281,3.0,10.0,76,0.00,,OVC032,0.01,0.00,VWS V14.00,2013-04-13 02:32:00,
2013-04-12 21:33:00,34.0,27.2,29.96,NW,304,3.0,10.0,76,0.00,,OVC032,0.01,0.00,VWS V14.00,2013-04-13 02:33:00,
2013-04-12 21:35:00,34.0,26.9,29.96,WNW,289,9.0,11.0,75,0.00,,OVC032,0.01,0.00,VWS V14.00,2013-04-13 02:35:00,
2013-04-12 21:38:00,33.9,26.8,29.96,WSW,251,6.0,11.0,75,0.00,,OVC032,0.01,0.00,VWS V14.00,2013-04-13 02:38:00,
2013-04-12 21:40:00,34.0,26.6,29.96,West,272,6.0,14.0,74,0.00,,OVC030,0.01,0.00,VWS V14.00,2013-04-13 02:40:00,
2013-04-12 21:42:00,33.9,26.5,29.96,WNW,290,8.0,14.0,74,0.00,,OVC030,0.01,0.00,VWS V14.00,2013-04-13 02:42:00,
2013-04-12 21:43:00,33.9,26.5,29.97,WNW,284,5.0,14.0,74,0.00,,OVC030,0.01,0.00,VWS V14.00,2013-04-13 02:43:00,
2013-04-12 21:45:00,33.9,26.5,29.97,NW,304,5.0,14.0,74,0.00,,OVC015,0.01,0.00,VWS V14.00,2013-04-13 02:45:00,
2013-04-12 21:46:00,33.9,26.2,29.97,WNW,288,5.0,10.0,73,0.00,,OVC030,0.01,0.00,VWS V14.00,2013-04-13 02:46:00,
2013-04-12 21:47:00,33.9,26.5,29.97,WNW,300,10.0,10.0,74,0.00,,OVC030,0.01,0.00,VWS V14.00,2013-04-13 02:47:00,
2013-04-12 21:48:00,33.9,26.5,29.97,West,265,5.0,10.0,74,0.00,,OVC030,0.01,0.00,VWS V14.00,2013-04-13 02:48:00,
2013-04-12 21:50:00,33.9,26.5,29.97,WNW,288,8.0,10.0,74,0.00,,OVC015,0.01,0.00,VWS V14.00,2013-04-13 02:50:00,
2013-04-12 21:51:00,33.9,26.5,29.97,WNW,300,4.0,12.0,74,0.00,,OVC030,0.01,0.00,VWS V14.00,2013-04-13 02:51:00,
2013-04-12 21:53:00,33.9,26.5,29.97,WNW,285,3.0,12.0,74,0.00,,OVC030,0.01,0.00,VWS V14.00,2013-04-13 02:53:00,
2013-04-12 21:54:00,33.9,26.8,29.97,WNW,291,4.0,12.0,75,0.00,,OVC030,0.01,0.00,VWS V14.00,2013-04-13 02:54:00,
2013-04-12 21:55:00,33.9,26.8,29.97,WNW,291,4.0,12.0,75,0.00,,OVC015,0.01,0.00,VWS V14.00,2013-04-13 02:55:00,
2013-04-12 21:57:00,33.9,26.5,29.97,WNW,285,10.0,12.0,74,0.00,,OVC030,0.01,0.00,VWS V14.00,2013-04-13 02:57:00,
2013-04-12 21:58:00,33.9,26.2,29.97,West,281,6.0,12.0,73,0.00,,OVC030,0.01,0.00,VWS V14.00,2013-04-13 02:58:00,
2013-04-12 21:59:00,33.9,26.2,29.97,WNW,300,4.0,5.0,73,0.00,,OVC030,0.01,0.00,VWS V14.00,2013-04-13 02:59:00,
2013-04-12 22:00:00,33.9,26.2,29.97,WNW,292,5.0,12.0,73,0.00,,OVC015,0.01,0.00,VWS V14.00,2013-04-13 03:00:00,
2013-04-12 22:02:00,33.9,26.5,29.97,WNW,288,5.0,10.0,74,0.00,,OVC030,0.01,0.00,VWS V14.00,2013-04-13 03:02:00,
2013-04-12 22:03:00,33.9,26.5,29.97,WNW,290,6.0,10.0,74,0.00,,OVC030,0.01,0.00,VWS V14.00,2013-04-13 03:03:00,
2013-04-12 22:05:00,33.8,26.4,29.97,WNW,296,10.0,10.0,74,0.00,,OVC030,0.01,0.00,VWS V14.00,2013-04-13 03:05:00,
2013-04-12 22:07:00,33.8,26.4,29.97,NNW,328,3.0,10.0,74,0.00,,OVC030,0.01,0.00,VWS V14.00,2013-04-13 03:07:00,
2013-04-12 22:08:00,33.8,26.4,29.97,WNW,285,2.0,10.0,74,0.00,,OVC030,0.01,0.00,VWS V14.00,2013-04-13 03:08:00,
2013-04-12 22:10:00,33.8,26.4,29.97,WNW,292,3.0,9.0,74,0.00,,OVC030,0.01,0.00,VWS V14.00,2013-04-13 03:10:00,
2013-04-12 22:12:00,33.8,26.4,29.97,WNW,297,6.0,11.0,74,0.00,,OVC030,0.01,0.00,VWS V14.00,2013-04-13 03:12:00,
2013-04-12 22:13:00,33.8,26.4,29.97,NW,308,5.0,11.0,74,0.00,,OVC030,0.01,0.00,VWS V14.00,2013-04-13 03:13:00,
2013-04-12 22:15:00,33.8,26.4,29.97,WNW,286,6.0,11.0,74,0.00,,OVC015,0.01,0.00,VWS V14.00,2013-04-13 03:15:00,
2013-04-12 22:16:00,33.8,26.7,29.97,WNW,288,5.0,10.0,75,0.00,,OVC030,0.01,0.00,VWS V14.00,2013-04-13 03:16:00,
2013-04-12 22:17:00,33.8,26.7,29.97,WNW,297,3.0,10.0,75,0.00,,OVC030,0.01,0.00,VWS V14.00,2013-04-13 03:17:00,
2013-04-12 22:18:00,33.7,26.6,29.97,West,274,8.0,10.0,75,0.00,,OVC030,0.01,0.00,VWS V14.00,2013-04-13 03:18:00,
2013-04-12 22:19:00,33.7,26.6,29.97,West,267,5.0,6.0,75,0.00,,OVC030,0.01,0.00,VWS V14.00,2013-04-13 03:19:00,
2013-04-12 22:20:00,33.7,26.6,29.97,West,281,6.0,10.0,75,0.00,,OVC015,0.01,0.00,VWS V14.00,2013-04-13 03:20:00,
2013-04-12 22:22:00,33.7,26.6,29.97,WNW,295,8.0,10.0,75,0.00,,OVC028,0.01,0.00,VWS V14.00,2013-04-13 03:22:00,
2013-04-12 22:23:00,33.7,27.0,29.97,NW,318,7.0,11.0,76,0.00,,OVC028,0.01,0.00,VWS V14.00,2013-04-13 03:23:00,
2013-04-12 22:24:00,33.7,27.0,29.97,NW,309,3.0,4.0,76,0.00,,OVC028,0.01,0.00,VWS V14.00,2013-04-13 03:24:00,
2013-04-12 22:25:00,33.7,27.0,29.97,NW,309,4.0,11.0,76,0.00,,OVC015,0.01,0.00,VWS V14.00,2013-04-13 03:25:00,
2013-04-12 22:27:00,33.7,27.0,29.97,West,267,4.0,7.0,76,0.00,,OVC028,0.01,0.00,VWS V14.00,2013-04-13 03:27:00,
2013-04-12 22:28:00,33.7,27.0,29.97,WNW,297,4.0,7.0,76,0.00,,OVC028,0.01,0.00,VWS V14.00,2013-04-13 03:28:00,
2013-04-12 22:29:00,33.7,27.0,29.97,WNW,300,3.0,6.0,76,0.00,,OVC028,0.01,0.00,VWS V14.00,2013-04-13 03:29:00,
2013-04-12 22:30:00,33.7,27.0,29.97,NW,320,7.0,7.0,76,0.00,,OVC015,0.01,0.00,VWS V14.00,2013-04-13 03:30:00,
2013-04-12 22:32:00,33.7,27.3,29.97,West,271,2.0,6.0,77,0.00,,OVC028,0.01,0.00,VWS V14.00,2013-04-13 03:32:00,
2013-04-12 22:33:00,33.6,26.9,29.97,West,275,6.0,9.0,76,0.00,,OVC028,0.01,0.00,VWS V14.00,2013-04-13 03:33:00,
2013-04-12 22:34:00,33.7,27.0,29.97,West,267,4.0,7.0,76,0.00,,OVC028,0.01,0.00,VWS V14.00,2013-04-13 03:34:00,
2013-04-12 22:35:00,33.6,26.9,29.97,West,269,5.0,9.0,76,0.00,,OVC015,0.01,0.00,VWS V14.00,2013-04-13 03:35:00,
2013-04-12 22:37:00,33.6,27.2,29.97,West,275,7.0,7.0,77,0.00,,OVC028,0.01,0.00,VWS V14.00,2013-04-13 03:37:00,
2013-04-12 22:38:00,33.6,27.2,29.97,WNW,290,4.0,7.0,77,0.00,,OVC028,0.01,0.00,VWS V14.00,2013-04-13 03:38:00,
2013-04-12 22:39:00,33.7,27.3,29.97,WNW,295,3.0,5.0,77,0.00,,OVC028,0.01,0.00,VWS V14.00,2013-04-13 03:39:00,
2013-04-12 22:40:00,33.7,27.3,29.97,WNW,296,5.0,7.0,77,0.00,,OVC015,0.01,0.00,VWS V14.00,2013-04-13 03:40:00,
2013-04-12 22:42:00,33.6,27.2,29.97,WNW,290,3.0,10.0,77,0.00,,OVC037,0.01,0.00,VWS V14.00,2013-04-13 03:42:00,
2013-04-12 22:44:00,33.6,27.2,29.97,West,280,4.0,10.0,77,0.00,,OVC037,0.01,0.00,VWS V14.00,2013-04-13 03:44:00,
2013-04-12 22:45:00,33.6,26.9,29.97,WNW,294,5.0,8.0,76,0.00,,OVC037,0.01,0.00,VWS V14.00,2013-04-13 03:45:00,
2013-04-12 22:48:00,33.6,26.9,29.97,WNW,288,2.0,8.0,76,0.00,,OVC037,0.01,0.00,VWS V14.00,2013-04-13 03:48:00,
2013-04-12 22:49:00,33.7,27.0,29.97,WNW,288,3.0,8.0,76,0.00,,OVC037,0.01,0.00,VWS V14.00,2013-04-13 03:49:00,
2013-04-12 22:50:00,33.7,27.0,29.97,WNW,293,1.0,6.0,76,0.00,,OVC037,0.01,0.00,VWS V14.00,2013-04-13 03:50:00,
2013-04-12 22:53:00,33.7,27.3,29.97,West,278,5.0,7.0,77,0.00,,OVC037,0.01,0.00,VWS V14.00,2013-04-13 03:53:00,
2013-04-12 22:54:00,33.7,27.3,29.97,WNW,283,5.0,8.0,77,0.00,,OVC037,0.01,0.00,VWS V14.00,2013-04-13 03:54:00,
2013-04-12 22:55:00,33.7,27.3,29.97,NW,306,1.0,5.0,77,0.00,,OVC037,0.01,0.00,VWS V14.00,2013-04-13 03:55:00,
2013-04-12 22:56:00,33.7,27.3,29.97,WNW,290,3.0,7.0,77,0.00,,OVC037,0.01,0.00,VWS V14.00,2013-04-13 03:56:00,
2013-04-12 22:58:00,33.7,27.3,29.97,NW,308,5.0,7.0,77,0.00,,OVC037,0.01,0.00,VWS V14.00,2013-04-13 03:58:00,
2013-04-12 22:59:00,33.7,27.3,29.97,WNW,286,5.0,6.0,77,0.00,,OVC037,0.01,0.00,VWS V14.00,2013-04-13 03:59:00,
2013-04-12 23:00:00,33.7,27.3,29.97,West,281,4.0,10.0,77,0.00,,OVC037,0.01,0.00,VWS V14.00,2013-04-13 04:00:00,
2013-04-12 23:05:00,33.7,27.3,29.97,WNW,301,4.0,8.0,77,0.00,,OVC041,0.01,0.00,VWS V14.00,2013-04-13 04:05:00,
2013-04-12 23:10:00,33.7,27.3,29.97,NW,310,4.0,10.0,77,0.00,,OVC041,0.01,0.00,VWS V14.00,2013-04-13 04:10:00,
2013-04-12 23:15:00,33.7,27.3,29.97,WNW,290,3.0,7.0,77,0.00,,OVC041,0.01,0.00,VWS V14.00,2013-04-13 04:15:00,
2013-04-12 23:20:00,33.7,27.6,29.97,West,278,2.0,5.0,78,0.00,,OVC041,0.01,0.00,VWS V14.00,2013-04-13 04:20:00,
2013-04-12 23:21:00,33.7,27.6,29.97,West,279,3.0,5.0,78,0.00,,OVC041,0.01,0.00,VWS V14.00,2013-04-13 04:21:00,
2013-04-12 23:25:00,33.7,27.6,29.97,West,269,0.0,9.0,78,0.00,,OVC041,0.01,0.00,VWS V14.00,2013-04-13 04:25:00,
2013-04-12 23:26:00,33.7,27.6,29.97,WNW,287,3.0,9.0,78,0.00,,OVC041,0.01,0.00,VWS V14.00,2013-04-13 04:26:00,
2013-04-12 23:27:00,33.7,27.6,29.97,WNW,290,2.0,9.0,78,0.00,,OVC041,0.01,0.00,VWS V14.00,2013-04-13 04:27:00,
2013-04-12 23:30:00,33.7,27.6,29.98,NW,315,2.0,4.0,78,0.00,,OVC041,0.01,0.00,VWS V14.00,2013-04-13 04:30:00,
2013-04-12 23:31:00,33.7,27.6,29.98,WNW,287,3.0,4.0,78,0.00,,OVC041,0.01,0.00,VWS V14.00,2013-04-13 04:31:00,
2013-04-12 23:32:00,33.7,27.6,29.98,WNW,290,3.0,6.0,78,0.00,,OVC041,0.01,0.00,VWS V14.00,2013-04-13 04:32:00,
2013-04-12 23:35:00,33.7,27.6,29.98,West,273,4.0,4.0,78,0.00,,OVC041,0.01,0.00,VWS V14.00,2013-04-13 04:35:00,
2013-04-12 23:36:00,33.6,27.5,29.97,West,272,1.0,4.0,78,0.00,,OVC041,0.01,0.00,VWS V14.00,2013-04-13 04:36:00,
2013-04-12 23:37:00,33.7,27.6,29.97,WNW,289,8.0,8.0,78,0.00,,OVC041,0.01,0.00,VWS V14.00,2013-04-13 04:37:00,
2013-04-12 23:40:00,33.6,27.5,29.97,WNW,299,6.0,10.0,78,0.00,,OVC015,0.01,0.00,VWS V14.00,2013-04-13 04:40:00,
2013-04-12 23:41:00,33.6,27.8,29.97,West,272,6.0,6.0,79,0.00,,OVC038,0.01,0.00,VWS V14.00,2013-04-13 04:41:00,
2013-04-12 23:42:00,33.6,27.5,29.97,WNW,289,5.0,10.0,78,0.00,,OVC038,0.01,0.00,VWS V14.00,2013-04-13 04:42:00,
2013-04-12 23:45:00,33.6,27.8,29.97,WNW,293,2.0,10.0,79,0.00,,OVC015,0.01,0.00,VWS V14.00,2013-04-13 04:45:00,
2013-04-12 23:47:00,33.6,27.5,29.97,WNW,295,3.0,8.0,78,0.00,,OVC038,0.01,0.00,VWS V14.00,2013-04-13 04:47:00,
2013-04-12 23:50:00,33.6,27.5,29.98,WNW,286,5.0,9.0,78,0.00,,OVC015,0.01,0.00,VWS V14.00,2013-04-13 04:50:00,
2013-04-12 23:52:00,33.6,27.5,29.98,West,272,4.0,6.0,78,0.00,,OVC038,0.01,0.00,VWS V14.00,2013-04-13 04:52:00,
2013-04-12 23:53:00,33.6,27.5,29.98,WNW,286,3.0,8.0,78,0.00,,OVC038,0.01,0.00,VWS V14.00,2013-04-13 04:53:00,
2013-04-12 23:55:00,33.6,27.5,29.98,WNW,303,4.0,8.0,78,0.00,,OVC015,0.01,0.00,VWS V14.00,2013-04-13 04:55:00,
2013-04-12 23:57:00,33.6,27.5,29.98,WNW,290,4.0,8.0,78,0.00,,OVC038,0.01,0.00,VWS V14.00,2013-04-13 04:57:00,
2013-04-12 23:58:00,33.6,27.5,29.98,WNW,296,6.0,8.0,78,0.00,,OVC038,0.01,0.00,VWS V14.00,2013-04-13 04:58:00,